<- Previous Day | Today | Next Day ->

All Data for 23 May 2020

 

Time A - D Temp A - D Dew Point A - D Humidity A - D Pressure A - D Wind A - D Wind Dir Gust A - D Rain Rate A - D Rain Total
00:00 11.4 8.4 82 1020.3 13.6 SE 16.8 0.0 0.0
00:01 11.4 8.4 82 1020.6 10.7 S 16.8 0.0 0.0
00:03 11.4 8.4 82 1020.4 18.3 S 18.3 0.0 0.0
00:04 11.4 8.4 82 1020.6 17.4 WSW 18.3 0.0 0.0
00:05 11.4 8.4 82 1020.4 14.5 S 18.3 0.0 0.0
00:06 11.4 8.4 82 1020.5 15.9 S 18.3 0.0 0.0
00:07 11.4 8.4 82 1020.4 12.1 S 18.3 0.0 0.0
00:08 11.4 8.4 82 1020.3 11.4 SE 18.3 0.0 0.0
00:09 11.4 8.4 82 1020.7 11.4 S 18.3 0.0 0.0
00:10 11.4 8.4 82 1020.4 10.7 SE 18.3 0.0 0.0
00:11 11.4 8.4 82 1020.6 14.5 SE 18.3 0.0 0.0
00:12 11.3 8.3 82 1020.5 11.4 S 18.3 0.0 0.0
00:13 11.3 8.3 82 1020.4 9.2 S 18.3 0.0 0.0
00:14 11.3 8.3 82 1020.4 9.2 S 17.4 0.0 0.0
00:15 11.3 8.3 82 1020.5 8.3 S 15.9 0.0 0.0
00:16 11.3 8.3 82 1020.7 13.0 S 15.9 0.0 0.0
00:18 11.3 8.3 82 1020.3 14.5 SW 14.5 0.0 0.0
00:19 11.3 8.3 82 1020.4 14.5 S 14.5 0.0 0.0
00:20 11.3 8.3 82 1020.7 13.0 SSW 14.5 0.0 0.0
00:21 11.3 8.3 82 1020.5 13.0 SE 14.5 0.0 0.0
00:22 11.3 8.3 82 1020.5 11.4 S 14.5 0.0 0.0
00:23 11.3 8.3 82 1020.5 11.4 S 14.5 0.0 0.0
00:24 11.2 8.2 82 1020.6 11.4 S 14.5 0.0 0.0
00:25 11.2 8.2 82 1020.3 12.1 S 14.5 0.0 0.0
00:26 11.2 8.2 82 1020.4 10.7 S 14.5 0.0 0.0
00:27 11.2 8.2 82 1020.4 13.0 S 14.5 0.0 0.0
00:28 11.2 8.2 82 1020.4 10.7 S 14.5 0.0 0.0
00:29 11.2 8.2 82 1020.6 9.8 S 14.5 0.0 0.0
00:30 11.2 8.2 82 1020.5 13.0 SE 14.5 0.0 0.0
00:32 11.1 8.1 82 1020.5 13.0 S 14.5 0.0 0.0
00:33 11.1 8.1 82 1020.4 12.1 S 14.5 0.0 0.0
00:34 11.1 8.1 82 1020.4 15.9 S 15.9 0.0 0.0
00:35 11.1 8.1 82 1020.6 16.8 SE 16.8 0.0 0.0
00:36 11.1 8.1 82 1020.4 11.4 S 16.8 0.0 0.0
00:37 11.1 8.1 82 1020.4 11.4 S 16.8 0.0 0.0
00:38 11.1 8.1 82 1020.6 9.8 S 16.8 0.0 0.0
00:39 11.1 8.1 82 1020.4 9.8 S 16.8 0.0 0.0
00:40 11.1 8.1 82 1020.7 9.8 S 16.8 0.0 0.0
00:41 11.1 8.1 82 1020.3 11.4 SE 16.8 0.0 0.0
00:42 11.1 8.1 82 1020.4 13.6 SW 16.8 0.0 0.0
00:43 11.1 8.1 82 1020.5 10.7 S 16.8 0.0 0.0
00:44 11.1 8.1 82 1020.6 13.0 S 16.8 0.0 0.0
00:46 11.1 8.1 82 1020.4 13.0 S 13.6 0.0 0.0
00:47 11.1 8.1 82 1020.5 12.1 SE 13.6 0.0 0.0
00:48 11.1 8.1 82 1020.5 8.3 SW 13.6 0.0 0.0
00:49 11.1 8.1 82 1020.5 11.4 S 13.6 0.0 0.0
00:50 11.1 8.1 82 1020.3 12.1 S 13.6 0.0 0.0
00:51 11.1 8.1 82 1020.3 12.1 S 13.6 0.0 0.0
00:52 11.1 8.1 82 1020.5 10.7 S 13.6 0.0 0.0
00:53 11.1 8.1 82 1020.5 10.7 S 13.6 0.0 0.0
00:54 11.1 8.1 82 1020.5 12.1 S 13.6 0.0 0.0
00:55 11.1 8.1 82 1020.5 12.1 S 13.6 0.0 0.0
00:56 11.1 8.1 82 1020.3 11.4 S 13.6 0.0 0.0
00:57 11.1 8.1 82 1020.4 12.1 S 13.6 0.0 0.0
00:58 11.1 8.1 82 1020.3 13.0 SE 13.6 0.0 0.0
01:00 11.1 8.1 82 1020.2 9.8 S 15.2 0.0 0.0
01:01 11.1 8.1 82 1020.5 9.8 S 15.2 0.0 0.0
01:02 11.1 8.1 82 1020.5 9.8 S 15.2 0.0 0.0
01:03 11.1 8.1 82 1020.4 9.8 S 15.2 0.0 0.0
01:04 11.1 8.1 82 1020.4 9.8 S 15.2 0.0 0.0
01:05 11.1 8.1 82 1020.3 9.8 S 15.2 0.0 0.0
01:06 11.1 8.1 82 1020.2 9.8 S 15.2 0.0 0.0
01:07 11.1 8.3 83 1020.5 13.6 SE 15.2 0.0 0.0
01:08 11.1 8.3 83 1020.5 10.7 S 15.2 0.0 0.0
01:09 11.1 8.3 83 1020.5 9.2 S 13.6 0.0 0.0
01:10 11.1 8.3 83 1020.5 11.4 S 13.6 0.0 0.0
01:11 11.1 8.3 83 1020.6 11.4 SE 13.6 0.0 0.0
01:12 11.1 8.3 83 1020.4 13.0 S 14.5 0.0 0.0
01:14 11.2 8.4 83 1020.6 12.1 S 15.2 0.0 0.0
01:15 11.2 8.4 83 1020.4 12.1 S 15.2 0.0 0.0
01:16 11.2 8.4 83 1020.5 11.4 S 15.2 0.0 0.0
01:17 11.2 8.4 83 1020.3 12.1 S 15.2 0.0 0.0
01:18 11.2 8.4 83 1020.5 11.4 S 15.2 0.0 0.0
01:19 11.2 8.4 83 1020.5 11.4 S 15.2 0.0 0.0
01:20 11.2 8.4 83 1020.6 12.1 S 15.2 0.0 0.0
01:21 11.2 8.4 83 1020.3 9.8 S 15.2 0.0 0.0
01:22 11.2 8.4 83 1020.7 11.4 SE 15.2 0.0 0.0
01:23 11.2 8.4 83 1020.4 13.0 S 15.2 0.0 0.0
01:24 11.2 8.4 83 1020.4 10.7 S 13.6 0.0 0.0
01:25 11.2 8.4 83 1020.4 13.6 SSW 13.6 0.0 0.0
01:26 11.2 8.4 83 1020.5 12.1 S 13.6 0.0 0.0
01:27 11.2 8.4 83 1020.3 13.0 SE 13.6 0.0 0.0
01:29 11.2 8.4 83 1020.3 13.0 S 13.6 0.0 0.0
01:30 11.2 8.4 83 1020.4 11.4 SE 13.6 0.0 0.0
01:31 11.2 8.4 83 1020.4 12.1 S 13.6 0.0 0.0
01:32 11.2 8.4 83 1020.6 12.1 SE 13.6 0.0 0.0
01:33 11.2 8.4 83 1020.6 13.6 SSW 13.6 0.0 0.0
01:34 11.2 8.4 83 1020.4 9.8 S 13.6 0.0 0.0
01:35 11.2 8.4 83 1020.4 9.8 S 13.6 0.0 0.0
01:36 11.2 8.4 83 1020.6 15.2 S 15.2 0.0 0.0
01:37 11.2 8.4 83 1020.5 15.9 S 15.9 0.0 0.0
01:38 11.2 8.4 83 1020.5 15.2 S 15.9 0.0 0.0
01:39 11.2 8.4 83 1020.3 12.1 S 15.9 0.0 0.0
01:40 11.2 8.4 83 1020.5 17.4 S 17.4 0.0 0.0
01:41 11.2 8.4 83 1020.4 17.4 S 17.4 0.0 0.0
01:42 11.2 8.4 83 1020.6 10.7 SE 17.4 0.0 0.0
01:44 11.2 8.2 82 1020.6 13.0 S 17.4 0.0 0.0
01:45 11.2 8.2 82 1020.6 15.9 S 17.4 0.0 0.0
01:46 11.3 8.3 82 1020.6 16.8 SW 17.4 0.0 0.0
01:47 11.3 8.3 82 1020.6 16.8 S 17.4 0.0 0.0
01:48 11.3 8.3 82 1020.5 13.6 S 17.4 0.0 0.0
01:49 11.3 8.3 82 1020.5 11.4 SW 17.4 0.0 0.0
01:50 11.3 8.3 82 1020.7 14.5 SE 17.4 0.0 0.0
01:51 11.3 8.3 82 1020.6 15.9 S 17.4 0.0 0.0
01:52 11.3 8.3 82 1020.5 13.6 SW 16.8 0.0 0.0
01:53 11.3 8.3 82 1020.6 13.0 SSW 16.8 0.0 0.0
01:54 11.3 8.3 82 1020.6 14.5 S 16.8 0.0 0.0
01:55 11.3 8.3 82 1020.5 18.3 S 18.3 0.0 0.0
01:56 11.3 8.3 82 1020.4 14.5 SE 18.3 0.0 0.0
01:58 11.3 8.3 82 1020.4 15.2 S 18.3 0.0 0.0
01:59 11.3 8.3 82 1020.5 17.4 S 18.3 0.0 0.0
02:00 11.3 8.3 82 1020.7 17.4 S 18.3 0.0 0.0
02:01 11.3 8.3 82 1020.6 15.2 S 18.3 0.0 0.0
02:02 11.3 8.3 82 1020.4 10.7 SE 18.3 0.0 0.0
02:03 11.3 8.3 82 1020.5 13.0 SW 18.3 0.0 0.0
02:04 11.3 8.3 82 1020.7 14.5 SW 18.3 0.0 0.0
02:05 11.3 8.3 82 1020.6 19.0 SE 19.0 0.0 0.0
02:06 11.3 8.3 82 1020.5 19.0 SE 19.0 0.0 0.0
02:07 11.3 8.3 82 1020.6 19.7 S 19.7 0.0 0.0
02:08 11.3 8.3 82 1020.5 17.4 S 19.7 0.0 0.0
02:09 11.3 8.3 82 1020.6 17.4 S 19.7 0.0 0.0
02:10 11.3 8.3 82 1020.5 15.2 S 19.7 0.0 0.0
02:12 11.3 8.3 82 1020.6 16.8 SE 19.7 0.0 0.0
02:13 11.3 8.3 82 1020.7 16.8 SE 19.7 0.0 0.0
02:14 11.3 8.3 82 1020.5 19.7 S 19.7 0.0 0.0
02:15 11.3 8.3 82 1020.6 15.9 S 19.7 0.0 0.0
02:16 11.3 8.3 82 1020.4 12.1 S 19.7 0.0 0.0
02:17 11.3 8.3 82 1020.8 13.6 S 19.7 0.0 0.0
02:18 11.3 8.3 82 1020.6 16.8 S 19.7 0.0 0.0
02:19 11.3 8.3 82 1020.8 16.8 S 19.7 0.0 0.0
02:20 11.3 8.3 82 1020.6 14.5 S 19.7 0.0 0.0
02:21 11.3 8.3 82 1020.4 16.8 SW 19.7 0.0 0.0
02:22 11.3 8.3 82 1020.6 18.3 S 19.7 0.0 0.0
02:23 11.3 8.3 82 1020.7 16.8 SW 19.7 0.0 0.0
02:24 11.3 8.3 82 1020.5 17.4 SW 19.7 0.0 0.0
02:26 11.3 8.3 82 1020.6 19.0 S 19.7 0.0 0.0
02:27 11.3 8.3 82 1020.6 18.3 S 19.7 0.0 0.0
02:28 11.3 8.3 82 1020.5 18.3 S 19.7 0.0 0.0
02:29 11.3 8.3 82 1020.6 14.5 SE 19.7 0.0 0.0
02:30 11.3 8.3 82 1020.5 13.6 S 19.7 0.0 0.0
02:31 11.3 8.3 82 1020.5 17.4 S 19.7 0.0 0.0
02:32 11.3 8.3 82 1020.7 12.1 S 19.7 0.0 0.0
02:33 11.3 8.3 82 1020.5 14.5 S 19.7 0.0 0.0
02:34 11.3 8.3 82 1020.5 15.9 S 19.0 0.0 0.0
02:35 11.3 8.3 82 1020.7 15.9 SE 19.0 0.0 0.0
02:36 11.3 8.3 82 1020.5 13.6 S 19.0 0.0 0.0
02:37 11.3 8.3 82 1020.5 13.6 S 18.3 0.0 0.0
02:38 11.3 8.3 82 1020.7 12.1 S 18.3 0.0 0.0
02:39 11.3 8.3 82 1020.4 15.9 S 17.4 0.0 0.0
02:42 11.2 8.2 82 1020.3 15.2 S 17.4 0.0 0.0
02:43 11.2 8.2 82 1020.5 19.7 S 19.7 0.0 0.0
02:44 11.2 8.2 82 1020.3 19.7 SW 19.7 0.0 0.0
02:45 11.2 8.2 82 1020.6 16.8 S 19.7 0.0 0.0
02:46 11.2 8.2 82 1020.3 14.5 S 19.7 0.0 0.0
02:47 11.2 8.2 82 1020.3 14.5 S 19.7 0.0 0.0
02:48 11.2 8.2 82 1020.4 16.8 S 19.7 0.0 0.0
02:49 11.2 8.2 82 1020.5 16.8 S 19.7 0.0 0.0
02:50 11.2 8.2 82 1020.6 15.9 S 19.7 0.0 0.0
02:51 11.2 8.2 82 1020.4 15.9 S 19.7 0.0 0.0
02:52 11.2 8.2 82 1020.5 14.5 S 19.7 0.0 0.0
02:53 11.2 8.2 82 1020.7 15.2 S 19.7 0.0 0.0
02:54 11.2 8.2 82 1020.5 17.4 S 17.4 0.0 0.0
02:56 11.2 8.2 82 1020.2 16.8 S 17.4 0.0 0.0
02:57 11.2 8.2 82 1020.5 15.2 SW 17.4 0.0 0.0
02:58 11.2 8.2 82 1020.4 17.4 SE 17.4 0.0 0.0
02:59 11.2 8.2 82 1020.7 13.0 S 17.4 0.0 0.0
03:00 11.2 8.2 82 1020.5 13.0 S 17.4 0.0 0.0
03:01 11.2 8.2 82 1020.5 13.0 S 17.4 0.0 0.0
03:02 11.2 8.2 82 1020.3 13.0 S 17.4 0.0 0.0
03:03 11.2 8.2 82 1020.5 13.0 S 17.4 0.0 0.0
03:04 11.2 8.2 82 1020.4 13.0 S 17.4 0.0 0.0
03:05 11.2 8.2 82 1020.6 13.0 S 17.4 0.0 0.0
03:06 11.2 8.2 82 1020.4 13.0 S 17.4 0.0 0.0
03:07 11.2 8.2 82 1020.4 16.8 S 17.4 0.0 0.0
03:09 11.2 8.2 82 1020.6 18.3 S 21.3 0.0 0.0
03:10 11.2 8.2 82 1020.6 11.4 S 21.3 0.0 0.0
03:11 11.2 8.2 82 1020.5 10.7 SW 21.3 0.0 0.0
03:12 11.2 8.2 82 1020.4 10.7 SW 21.3 0.0 0.0
03:13 11.2 8.2 82 1020.6 12.1 SW 21.3 0.0 0.0
03:14 11.2 8.2 82 1020.7 13.6 S 21.3 0.0 0.0
03:15 11.2 8.2 82 1020.7 13.6 S 21.3 0.0 0.0
03:16 11.3 8.3 82 1020.5 13.0 SW 21.3 0.0 0.0
03:17 11.3 8.3 82 1020.4 13.0 SW 21.3 0.0 0.0
03:18 11.3 8.3 82 1020.5 13.6 S 21.3 0.0 0.0
03:19 11.3 8.3 82 1020.5 13.0 S 18.3 0.0 0.0
03:20 11.3 8.3 82 1020.8 13.6 SE 15.2 0.0 0.0
03:21 11.3 8.3 82 1020.7 10.7 S 15.2 0.0 0.0
03:23 11.3 8.3 82 1020.4 16.8 S 16.8 0.0 0.0
03:24 11.3 8.3 82 1020.6 18.3 S 18.3 0.0 0.0
03:25 11.3 8.3 82 1020.4 15.9 WSW 18.3 0.0 0.0
03:26 11.3 8.3 82 1020.6 15.2 SW 18.3 0.0 0.0
03:27 11.3 8.3 82 1020.7 15.2 SW 18.3 0.0 0.0
03:28 11.3 8.3 82 1020.6 10.7 S 18.3 0.0 0.0
03:29 11.3 8.3 82 1020.6 13.0 S 18.3 0.0 0.0
03:30 11.3 8.3 82 1020.6 13.0 S 18.3 0.0 0.0
03:31 11.3 8.3 82 1020.4 14.5 SW 18.3 0.0 0.0
03:32 11.3 8.3 82 1020.6 16.8 SSW 18.3 0.0 0.0
03:33 11.3 8.3 82 1020.6 17.4 SW 18.3 0.0 0.0
03:34 11.3 8.3 82 1020.4 17.4 S 18.3 0.0 0.0
03:35 11.3 8.3 82 1020.6 16.8 S 17.4 0.0 0.0
03:36 11.3 8.3 82 1020.4 13.0 SE 17.4 0.0 0.0
03:38 11.4 8.4 82 1020.5 19.7 S 19.7 0.0 0.0
03:39 11.4 8.4 82 1020.6 19.7 SE 19.7 0.0 0.0
03:40 11.4 8.4 82 1020.5 17.4 S 19.7 0.0 0.0
03:41 11.4 8.4 82 1020.4 17.4 S 19.7 0.0 0.0
03:42 11.4 8.4 82 1020.5 15.2 S 19.7 0.0 0.0
03:43 11.4 8.4 82 1020.6 15.9 S 19.7 0.0 0.0
03:44 11.3 8.3 82 1020.5 16.8 S 19.7 0.0 0.0
03:45 11.3 8.3 82 1020.5 12.1 SE 19.7 0.0 0.0
03:46 11.3 8.3 82 1020.7 10.7 S 19.7 0.0 0.0
03:47 11.3 8.3 82 1020.6 20.6 S 20.6 0.0 0.0
03:48 11.3 8.3 82 1020.5 13.6 S 20.6 0.0 0.0
03:49 11.3 8.3 82 1020.7 15.2 SW 20.6 0.0 0.0
03:50 11.3 8.3 82 1020.7 11.4 S 20.6 0.0 0.0
03:51 11.3 8.3 82 1020.7 14.5 SW 20.6 0.0 0.0
03:52 11.3 8.3 82 1020.5 16.8 S 20.6 0.0 0.0
03:53 11.3 8.3 82 1020.7 16.8 S 20.6 0.0 0.0
03:55 11.3 8.3 82 1020.6 17.4 SW 20.6 0.0 0.0
03:56 11.3 8.3 82 1020.7 18.3 S 20.6 0.0 0.0
03:57 11.3 8.3 82 1020.5 18.3 SSW 20.6 0.0 0.0
03:58 11.3 8.3 82 1020.6 16.8 S 19.7 0.0 0.0
03:59 11.3 8.3 82 1020.6 14.5 S 19.7 0.0 0.0
04:00 11.3 8.3 82 1020.5 14.5 S 19.7 0.0 0.0
04:01 11.3 8.3 82 1020.7 14.5 S 19.7 0.0 0.0
04:02 11.3 8.3 82 1020.6 18.3 SSW 19.7 0.0 0.0
04:03 11.3 8.3 82 1020.6 18.3 SE 19.7 0.0 0.0
04:04 11.3 8.3 82 1020.9 17.4 SE 19.7 0.0 0.0
04:05 11.3 8.3 82 1020.6 15.2 SE 18.3 0.0 0.0
04:06 11.3 8.3 82 1020.7 13.0 S 18.3 0.0 0.0
04:07 11.3 8.3 82 1020.6 15.9 SE 18.3 0.0 0.0
04:08 11.3 8.3 82 1020.6 18.3 SW 18.3 0.0 0.0
04:09 11.3 8.3 82 1020.8 18.3 S 18.3 0.0 0.0
04:11 11.3 8.3 82 1020.6 15.9 S 18.3 0.0 0.0
04:12 11.3 8.3 82 1020.7 12.1 S 18.3 0.0 0.0
04:13 11.3 8.3 82 1020.8 16.8 S 18.3 0.0 0.0
04:14 11.3 8.3 82 1020.7 13.0 SW 18.3 0.0 0.0
04:15 11.2 8.2 82 1020.6 13.0 S 18.3 0.0 0.0
04:16 11.2 8.2 82 1020.8 19.0 S 19.0 0.0 0.0
04:17 11.2 8.2 82 1020.7 17.4 S 19.0 0.0 0.0
04:18 11.2 8.2 82 1020.8 17.4 S 19.0 0.0 0.0
04:19 11.2 8.2 82 1020.8 18.3 S 19.0 0.0 0.0
04:20 11.2 8.1 81 1020.8 14.5 SW 19.0 0.0 0.0
04:21 11.2 8.1 81 1020.8 14.5 S 19.0 0.0 0.0
04:22 11.2 8.1 81 1020.7 13.0 S 19.0 0.0 0.0
04:23 11.2 8.1 81 1020.6 15.2 SW 19.0 0.0 0.0
04:25 11.2 8.1 81 1020.8 14.5 S 19.0 0.0 0.0
04:26 11.1 8.0 81 1020.7 15.2 S 18.3 0.0 0.0
04:27 11.1 8.0 81 1020.7 15.2 S 18.3 0.0 0.0
04:28 11.1 8.0 81 1020.7 14.5 S 18.3 0.0 0.0
04:29 11.1 8.0 81 1020.6 11.4 S 15.2 0.0 0.0
04:30 11.1 8.0 81 1020.4 15.9 S 15.9 0.0 0.0
04:31 11.1 8.0 81 1020.7 15.9 SW 15.9 0.0 0.0
04:32 11.1 8.0 81 1020.8 12.1 SW 15.9 0.0 0.0
04:33 11.1 8.0 81 1020.7 13.0 SW 15.9 0.0 0.0
04:34 11.1 8.0 81 1020.9 17.4 SW 17.4 0.0 0.0
04:35 11.1 8.0 81 1020.8 13.6 SW 17.4 0.0 0.0
04:36 11.1 8.0 81 1020.8 15.9 S 17.4 0.0 0.0
04:37 11.1 8.0 81 1020.8 12.1 S 17.4 0.0 0.0
04:39 11.1 8.0 81 1020.9 10.7 S 17.4 0.0 0.0
04:40 11.1 8.0 81 1020.7 11.4 S 17.4 0.0 0.0
04:41 11.1 8.0 81 1020.8 11.4 SW 17.4 0.0 0.0
04:42 11.1 8.0 81 1020.8 18.3 S 18.3 0.0 0.0
04:43 11.1 8.0 81 1021.0 18.3 S 18.3 0.0 0.0
04:44 11.0 7.9 81 1020.9 11.4 S 18.3 0.0 0.0
04:45 11.0 7.9 81 1020.8 15.2 S 18.3 0.0 0.0
04:46 11.0 7.9 81 1020.9 17.4 SE 18.3 0.0 0.0
04:47 11.0 7.9 81 1020.9 19.0 SW 19.0 0.0 0.0
04:48 11.0 7.9 81 1021.1 12.1 S 19.0 0.0 0.0
04:49 11.0 7.9 81 1020.9 13.6 W 19.0 0.0 0.0
04:50 11.0 7.9 81 1020.9 15.2 SW 19.0 0.0 0.0
04:51 11.0 7.9 81 1020.8 13.0 SW 19.0 0.0 0.0
04:53 11.0 7.9 81 1020.9 17.4 S 19.0 0.0 0.0
04:54 10.9 7.8 81 1020.8 11.4 S 19.0 0.0 0.0
04:55 10.9 7.6 80 1020.8 18.3 SW 19.0 0.0 0.0
04:56 10.9 7.6 80 1020.8 15.9 S 19.0 0.0 0.0
04:57 10.9 7.6 80 1020.9 15.9 SW 18.3 0.0 0.0
04:58 10.9 7.6 80 1020.8 9.8 S 18.3 0.0 0.0
04:59 10.9 7.6 80 1020.6 10.7 S 18.3 0.0 0.0
05:00 10.9 7.6 80 1020.7 9.2 SW 18.3 0.0 0.0
05:01 10.9 7.6 80 1020.9 9.2 SW 18.3 0.0 0.0
05:02 10.9 7.6 80 1020.9 9.2 SW 18.3 0.0 0.0
05:03 10.9 7.6 80 1021.1 9.2 SW 18.3 0.0 0.0
05:04 10.9 7.6 80 1020.6 9.2 SW 18.3 0.0 0.0
05:05 10.9 7.6 80 1021.0 9.2 SW 18.3 0.0 0.0
05:07 10.8 7.5 80 1021.0 8.3 SW 15.2 2.3 0.2
05:08 10.8 7.5 80 1021.0 10.7 SE 15.2 2.3 0.3
05:09 10.8 7.7 81 1020.8 13.0 SW 15.2 3.0 0.3
05:10 10.8 7.7 81 1020.7 11.4 S 15.2 3.0 0.3
05:11 10.8 7.7 81 1021.0 12.1 S 15.2 1.5 0.3
05:12 10.8 7.7 81 1020.9 13.6 S 15.2 0.8 0.3
05:13 10.8 7.7 81 1020.9 15.2 S 15.2 0.8 0.3
05:14 10.8 7.7 81 1020.7 18.3 SW 18.3 0.0 0.3
05:15 10.8 7.7 81 1021.2 12.1 S 18.3 0.0 0.3
05:16 10.8 7.7 81 1020.9 10.7 SW 18.3 0.0 0.3
05:17 10.8 7.7 81 1021.0 23.5 SE 23.5 0.0 0.3
05:18 10.8 7.7 81 1021.2 23.5 SE 23.5 0.0 0.3
05:19 10.8 7.9 82 1020.9 22.1 SE 23.5 0.0 0.3
05:21 10.8 7.9 82 1020.9 14.5 S 23.5 0.0 0.3
05:22 10.8 7.9 82 1021.1 15.2 SE 23.5 0.0 0.3
05:23 10.8 7.9 82 1021.0 13.0 SSW 23.5 0.0 0.3
05:24 10.8 7.9 82 1021.2 11.4 S 23.5 0.0 0.3
05:25 10.8 7.9 82 1021.2 12.1 S 23.5 0.0 0.3
05:26 10.8 7.9 82 1021.1 15.9 S 23.5 0.0 0.3
05:27 10.8 7.9 82 1021.3 15.9 S 23.5 0.0 0.3
05:28 10.8 7.9 82 1021.4 13.6 S 23.5 0.0 0.3
05:29 10.8 7.9 82 1021.1 13.6 S 22.1 0.0 0.3
05:30 10.9 8.0 82 1021.1 14.5 S 19.7 0.0 0.3
05:31 10.9 8.0 82 1021.2 14.5 S 15.9 0.0 0.3
05:32 10.9 8.0 82 1021.0 9.8 SE 15.9 0.0 0.3
05:33 10.9 8.0 82 1021.2 9.2 SE 15.9 0.0 0.3
05:35 10.9 8.0 82 1021.2 17.4 SW 17.4 0.0 0.3
05:36 10.9 8.0 82 1021.1 19.0 SW 19.0 0.0 0.3
05:37 10.9 8.0 82 1021.3 15.2 S 19.0 0.0 0.3
05:38 10.9 8.0 82 1021.2 15.9 SE 19.0 0.0 0.3
05:39 10.9 8.0 82 1021.2 17.4 SSE 19.0 0.0 0.3
05:40 10.9 8.0 82 1021.2 15.9 S 19.0 0.0 0.3
05:41 10.9 8.0 82 1021.1 15.9 S 19.0 0.0 0.3
05:42 10.9 8.0 82 1021.2 18.3 SE 19.0 0.0 0.3
05:43 10.9 8.0 82 1021.2 17.4 SE 19.0 0.0 0.3
05:44 10.9 8.0 82 1021.2 16.8 S 19.7 0.0 0.3
05:45 10.9 8.0 82 1021.3 18.3 S 19.7 0.0 0.3
05:46 10.9 8.0 82 1021.3 14.5 SE 19.7 0.0 0.3
05:47 10.9 8.0 82 1021.1 15.9 S 19.7 0.0 0.3
05:49 10.8 7.9 82 1021.2 15.9 SW 19.7 0.0 0.3
05:50 10.8 7.9 82 1021.2 9.8 SW 19.7 0.0 0.3
05:51 10.8 7.9 82 1021.3 8.3 S 19.7 0.0 0.3
05:52 10.8 7.9 82 1021.4 13.0 SW 19.7 0.0 0.3
05:53 10.8 7.9 82 1021.4 17.4 SW 19.7 0.0 0.3
05:54 10.8 7.9 82 1021.3 14.5 SW 18.3 0.0 0.3
05:55 10.7 7.8 82 1021.3 14.5 S 18.3 0.0 0.3
05:56 10.7 7.8 82 1021.3 13.6 SW 17.4 0.0 0.3
05:57 10.7 7.8 82 1021.3 11.4 SE 17.4 0.0 0.3
05:58 10.7 7.8 82 1021.3 14.5 S 17.4 0.0 0.3
05:59 10.7 7.8 82 1021.3 12.1 S 17.4 0.0 0.3
06:00 10.7 7.8 82 1021.5 16.8 S 17.4 0.0 0.3
06:01 10.7 7.8 82 1021.3 16.8 S 17.4 0.0 0.3
06:03 10.7 7.8 82 1021.4 13.6 SW 16.8 0.0 0.3
06:04 10.7 7.8 82 1021.4 15.9 SE 16.8 0.0 0.3
06:05 10.7 7.8 82 1021.2 13.6 SW 16.8 0.0 0.3
06:06 10.7 7.8 82 1021.1 17.4 S 17.4 0.0 0.3
06:07 10.7 7.8 82 1021.5 17.4 SSW 17.4 0.0 0.3
06:08 10.7 7.8 82 1021.5 15.9 SE 17.4 0.0 0.3
06:09 10.7 7.8 82 1021.3 14.5 SSW 17.4 0.0 0.3
06:10 10.7 7.8 82 1021.4 10.7 SW 17.4 0.0 0.3
06:11 10.7 7.8 82 1021.7 13.6 S 17.4 0.0 0.3
06:12 10.7 7.8 82 1021.2 13.0 S 17.4 0.0 0.3
06:13 10.7 7.8 82 1021.4 13.0 S 17.4 0.0 0.3
06:14 10.7 7.6 81 1021.3 11.4 SW 17.4 0.0 0.3
06:15 10.7 7.6 81 1021.3 10.7 S 17.4 0.0 0.3
06:17 10.7 7.6 81 1021.5 13.0 S 17.4 0.0 0.3
06:18 10.7 7.6 81 1021.4 11.4 SW 14.5 0.0 0.3
06:19 10.7 7.6 81 1021.3 12.1 SW 14.5 0.0 0.3
06:20 10.7 7.6 81 1021.6 13.0 S 14.5 0.0 0.3
06:21 10.7 7.6 81 1021.5 13.0 SSW 14.5 0.0 0.3
06:22 10.7 7.6 81 1021.4 15.2 SW 15.2 0.0 0.3
06:23 10.7 7.6 81 1021.4 15.2 S 15.2 0.0 0.3
06:24 10.7 7.6 81 1021.3 13.6 S 15.2 0.0 0.3
06:25 10.7 7.6 81 1021.3 13.6 S 15.2 0.0 0.3
06:26 10.7 7.6 81 1021.5 14.5 S 15.2 0.0 0.3
06:27 10.7 7.6 81 1021.5 14.5 SW 15.2 0.0 0.3
06:28 10.7 7.6 81 1021.4 13.6 S 15.2 0.0 0.3
06:29 10.7 7.6 81 1021.6 11.4 S 15.2 0.0 0.3
06:31 10.7 7.6 81 1021.4 14.5 S 15.2 0.0 0.3
06:32 10.7 7.6 81 1021.3 15.2 SW 15.2 0.0 0.3
06:33 10.7 7.6 81 1021.3 16.8 SW 16.8 0.0 0.3
06:34 10.7 7.6 81 1021.2 11.4 S 16.8 0.0 0.3
06:35 10.7 7.6 81 1021.4 11.4 SSW 16.8 0.0 0.3
06:36 10.7 7.6 81 1021.5 13.0 SE 16.8 0.0 0.3
06:37 10.7 7.6 81 1021.5 11.4 S 16.8 0.0 0.3
06:38 10.7 7.6 81 1021.6 12.1 S 16.8 0.0 0.3
06:39 10.7 7.6 81 1021.5 16.8 SW 16.8 0.0 0.3
06:40 10.8 7.7 81 1021.6 13.6 SSW 16.8 0.0 0.3
06:41 10.8 7.7 81 1021.5 9.8 S 16.8 0.0 0.3
06:42 10.8 7.7 81 1021.5 12.1 SE 16.8 0.0 0.3
06:43 10.8 7.7 81 1021.4 13.0 S 16.8 0.0 0.3
06:45 10.8 7.5 80 1021.7 16.8 S 16.8 0.0 0.3
06:46 10.8 7.5 80 1021.6 15.2 SW 16.8 0.0 0.3
06:47 10.8 7.5 80 1021.8 16.8 SW 16.8 0.0 0.3
06:48 10.9 7.6 80 1021.4 13.6 SW 16.8 0.0 0.3
06:49 10.9 7.6 80 1021.7 13.6 SW 16.8 0.0 0.3
06:50 10.9 7.6 80 1021.7 13.6 SW 16.8 0.0 0.3
06:51 10.9 7.6 80 1021.8 15.9 S 16.8 0.0 0.3
06:52 10.9 7.6 80 1021.7 11.4 S 16.8 0.0 0.3
06:53 10.9 7.6 80 1021.8 11.4 S 16.8 0.0 0.3
06:54 10.9 7.6 80 1021.8 11.4 SE 16.8 0.0 0.3
06:55 10.9 7.6 80 1021.7 10.7 S 16.8 0.0 0.3
06:56 10.9 7.6 80 1021.7 11.4 S 16.8 0.0 0.3
06:57 10.9 7.6 80 1021.8 13.6 S 16.8 0.0 0.3
06:59 10.9 7.6 80 1021.7 13.0 SW 15.9 0.0 0.3
07:00 10.9 7.6 80 1021.9 13.0 SW 15.9 0.0 0.3
07:01 10.9 7.6 80 1021.7 13.0 SW 15.9 0.0 0.3
07:02 10.9 7.6 80 1021.8 13.0 SW 15.2 0.0 0.3
07:03 10.9 7.6 80 1021.7 13.0 SW 15.2 0.0 0.3
07:04 10.9 7.6 80 1021.8 13.0 SW 15.2 0.0 0.3
07:05 10.9 7.6 80 1021.9 13.0 SW 15.2 0.0 0.3
07:06 11.0 7.7 80 1021.7 16.8 SW 16.8 0.0 0.3
07:07 11.0 7.7 80 1021.8 15.2 SW 16.8 0.0 0.3
07:08 11.0 7.7 80 1021.9 13.0 SW 16.8 0.0 0.3
07:09 11.0 7.7 80 1021.8 13.6 S 16.8 0.0 0.3
07:10 11.1 7.8 80 1022.1 14.5 S 16.8 0.0 0.3
07:11 11.1 7.8 80 1022.1 16.8 SE 16.8 0.0 0.3
07:13 11.1 7.8 80 1022.1 13.0 S 16.8 0.0 0.3
07:14 11.2 7.9 80 1022.2 18.3 S 18.3 0.0 0.3
07:15 11.2 7.9 80 1022.0 15.2 SW 18.3 0.0 0.3
07:16 11.2 7.9 80 1022.2 15.9 W 18.3 0.0 0.3
07:17 11.2 7.9 80 1022.0 14.5 SW 18.3 0.0 0.3
07:18 11.2 7.9 80 1022.1 11.4 S 18.3 0.0 0.3
07:19 11.2 7.9 80 1022.2 8.3 SE 18.3 0.0 0.3
07:20 11.3 8.0 80 1022.2 13.6 SW 18.3 0.0 0.3
07:21 11.3 8.0 80 1022.0 21.3 S 21.3 0.0 0.3
07:22 11.3 8.0 80 1022.2 13.6 S 21.3 0.0 0.3
07:23 11.3 8.0 80 1022.0 15.2 S 21.3 0.0 0.3
07:24 11.3 8.0 80 1022.2 18.3 SW 21.3 0.0 0.3
07:25 11.3 8.0 80 1022.1 15.2 S 21.3 0.0 0.3
07:27 11.4 8.1 80 1022.1 16.8 SW 21.3 0.0 0.3
07:28 11.4 8.1 80 1022.2 18.3 SW 21.3 0.0 0.3
07:29 11.4 8.1 80 1022.1 11.4 W 21.3 0.0 0.3
07:30 11.5 8.2 80 1022.1 20.6 S 21.3 0.0 0.3
07:31 11.5 8.2 80 1022.1 18.3 S 20.6 0.0 0.3
07:32 11.5 8.2 80 1022.1 14.5 SW 20.6 0.0 0.3
07:33 11.5 8.2 80 1022.2 11.4 SW 20.6 0.0 0.3
07:34 11.5 8.2 80 1022.2 19.0 S 20.6 0.0 0.3
07:35 11.5 8.2 80 1022.3 17.4 SW 20.6 0.0 0.3
07:36 11.6 8.3 80 1022.2 17.4 S 20.6 0.0 0.3
07:37 11.6 8.3 80 1022.2 17.4 SW 20.6 0.0 0.3
07:38 11.6 8.3 80 1022.3 16.8 S 20.6 0.0 0.3
07:39 11.6 8.1 79 1022.3 15.2 SW 20.6 0.0 0.3
07:41 11.6 8.1 79 1022.2 20.6 SW 25.9 0.0 0.3
07:42 11.6 7.9 78 1022.3 18.3 SW 25.9 0.0 0.3
07:43 11.6 7.9 78 1022.3 19.7 S 25.9 0.0 0.3
07:44 11.6 7.9 78 1022.3 19.7 SW 25.9 0.0 0.3
07:45 11.7 8.0 78 1022.3 11.4 S 25.9 0.0 0.3
07:46 11.7 8.0 78 1022.2 22.1 SSW 25.9 0.0 0.3
07:47 11.7 8.0 78 1022.2 22.1 SSW 25.9 0.0 0.3
07:48 11.7 8.0 78 1022.3 15.9 SW 25.9 0.0 0.3
07:49 11.7 8.0 78 1022.4 13.0 SW 25.9 0.0 0.3
07:50 11.8 8.1 78 1022.3 14.5 S 25.9 0.0 0.3
07:51 11.8 8.1 78 1022.2 13.0 SW 22.1 0.0 0.3
07:52 11.8 8.1 78 1022.4 15.2 SW 22.1 0.0 0.3
07:53 11.8 8.1 78 1022.4 12.1 S 22.1 0.0 0.3
07:54 11.9 8.2 78 1022.5 12.1 S 22.1 0.0 0.3
07:56 11.9 8.2 78 1022.5 15.2 S 22.1 0.0 0.3
07:57 11.9 8.2 78 1022.5 18.3 S 18.3 0.0 0.3
07:58 11.9 8.2 78 1022.7 22.8 W 22.8 0.0 0.3
07:59 11.9 8.2 78 1022.5 19.0 SW 22.8 0.0 0.3
08:00 11.9 8.2 78 1022.4 19.0 SW 22.8 0.0 0.3
08:01 11.9 8.2 78 1022.6 19.0 SW 22.8 0.0 0.3
08:02 11.9 8.2 78 1022.5 19.0 SW 22.8 0.0 0.3
08:03 11.9 8.2 78 1022.6 19.0 SW 22.8 0.0 0.3
08:04 11.9 8.2 78 1022.7 19.0 SW 22.8 0.0 0.3
08:05 11.9 8.2 78 1022.7 19.0 SW 22.8 0.0 0.3
08:06 12.0 8.1 77 1022.7 21.3 S 22.8 0.0 0.3
08:07 12.0 8.1 77 1022.7 17.4 S 22.8 0.0 0.3
08:08 12.0 8.1 77 1022.7 15.9 S 22.8 0.0 0.3
08:10 12.1 8.2 77 1023.0 18.3 SE 21.3 0.0 0.3
08:11 12.1 8.2 77 1022.6 19.7 SSW 21.3 0.0 0.3
08:12 12.1 8.0 76 1022.8 19.7 S 21.3 0.0 0.3
08:13 12.1 8.0 76 1022.6 19.0 S 21.3 0.0 0.3
08:14 12.1 8.0 76 1022.6 18.3 SSW 21.3 0.0 0.3
08:15 12.1 8.0 76 1022.7 17.4 S 21.3 0.0 0.3
08:16 12.1 8.0 76 1022.7 17.4 S 21.3 0.0 0.3
08:17 12.1 8.0 76 1022.6 15.9 S 19.7 0.0 0.3
08:18 12.1 8.0 76 1022.6 18.3 SW 19.7 0.0 0.3
08:19 12.2 8.1 76 1022.8 20.6 S 20.6 0.0 0.3
08:20 12.2 8.1 76 1022.8 15.9 SW 20.6 0.0 0.3
08:21 12.2 8.1 76 1022.6 20.6 SW 20.6 0.0 0.3
08:22 12.2 8.1 76 1022.8 15.9 SW 20.6 0.0 0.3
08:23 12.3 8.2 76 1022.8 18.3 S 20.6 0.0 0.3
08:25 12.3 8.2 76 1022.8 20.6 SW 20.6 0.0 0.3
08:26 12.3 8.0 75 1023.1 21.3 S 21.3 0.0 0.3
08:27 12.3 8.0 75 1022.7 15.2 SW 21.3 0.0 0.3
08:28 12.3 8.0 75 1022.9 18.3 S 21.3 0.0 0.3
08:29 12.3 8.0 75 1022.7 18.3 S 21.3 0.0 0.3
08:30 12.3 8.0 75 1022.9 17.4 S 21.3 0.0 0.3
08:31 12.3 8.0 75 1023.0 17.4 SW 21.3 0.0 0.3
08:32 12.3 8.0 75 1022.9 15.2 S 21.3 0.0 0.3
08:33 12.4 8.1 75 1022.9 13.6 S 21.3 0.0 0.3
08:34 12.4 8.1 75 1022.9 13.0 S 21.3 0.0 0.3
08:35 12.4 8.1 75 1022.9 16.8 S 21.3 0.0 0.3
08:36 12.5 7.8 73 1023.0 14.5 SE 21.3 0.0 0.3
08:37 12.5 7.8 73 1023.0 10.7 S 18.3 0.0 0.3
08:39 12.5 7.6 72 1022.9 22.8 SW 22.8 0.0 0.3
08:40 12.5 7.6 72 1023.0 15.2 S 22.8 0.0 0.3
08:41 12.5 7.6 72 1022.9 14.5 W 22.8 0.0 0.3
08:42 12.5 7.6 72 1022.9 23.5 SW 23.5 0.0 0.3
08:43 12.5 7.6 72 1023.1 23.5 S 23.5 0.0 0.3
08:44 12.5 7.6 72 1023.0 23.5 S 23.5 0.0 0.3
08:45 12.5 7.6 72 1023.0 22.1 S 23.5 0.0 0.3
08:46 12.6 7.7 72 1022.9 11.4 S 23.5 0.0 0.3
08:47 12.6 7.7 72 1022.9 11.4 S 23.5 0.0 0.3
08:48 12.6 7.7 72 1023.0 15.2 S 23.5 0.0 0.3
08:49 12.6 7.7 72 1022.8 17.4 S 23.5 0.0 0.3
08:50 12.5 7.6 72 1023.0 15.2 SW 23.5 0.0 0.3
08:51 12.5 7.6 72 1023.2 15.2 S 23.5 0.0 0.3
08:53 12.5 7.6 72 1023.0 17.4 S 23.5 0.0 0.3
08:54 12.5 7.6 72 1023.1 17.4 SW 22.1 0.0 0.3
08:55 12.6 7.7 72 1023.0 16.8 S 22.1 0.0 0.3
08:56 12.6 7.7 72 1023.0 16.8 S 22.1 0.0 0.3
08:57 12.6 7.7 72 1022.8 22.8 S 22.8 0.0 0.3
08:58 12.7 7.8 72 1023.0 19.7 S 22.8 0.0 0.3
08:59 12.7 7.8 72 1023.0 19.7 S 22.8 0.0 0.3
09:00 12.7 7.8 72 1022.8 17.4 S 22.8 0.0 0.3
09:01 12.7 7.8 72 1023.1 17.4 S 22.8 0.0 0.3
09:02 12.7 7.8 72 1023.1 17.4 S 22.8 0.0 0.3
09:03 12.7 7.8 72 1023.1 17.4 S 22.8 0.0 0.3
09:04 12.7 7.8 72 1023.1 17.4 S 22.8 0.0 0.3
09:05 12.7 7.8 72 1023.1 17.4 S 22.8 0.0 0.3
09:06 12.9 7.8 71 1023.1 22.1 S 24.4 0.0 0.3
09:08 12.9 7.8 71 1023.2 19.0 S 24.4 0.0 0.3
09:09 12.9 7.8 71 1023.3 20.6 SSW 24.4 0.0 0.3
09:10 12.8 7.7 71 1023.5 18.3 S 24.4 0.0 0.3
09:11 12.8 7.7 71 1023.4 22.8 S 24.4 0.0 0.3
09:12 12.8 7.7 71 1023.4 23.5 SW 24.4 0.0 0.3
09:13 12.8 7.7 71 1023.3 23.5 SW 24.4 0.0 0.3
09:14 12.8 7.7 71 1023.2 19.7 S 24.4 0.0 0.3
09:15 12.8 7.7 71 1023.2 19.7 S 24.4 0.0 0.3
09:16 12.9 7.8 71 1023.5 21.3 SW 24.4 0.0 0.3
09:17 12.9 7.8 71 1023.3 21.3 S 24.4 0.0 0.3
09:18 13.0 7.9 71 1023.4 13.0 SW 24.4 0.0 0.3
09:19 13.0 7.9 71 1023.5 15.9 SW 24.4 0.0 0.3
09:20 13.2 8.1 71 1023.3 16.8 S 24.4 0.0 0.3
09:21 13.2 8.1 71 1023.7 19.7 S 24.4 0.0 0.3
09:22 13.3 8.2 71 1023.3 19.7 E 24.4 0.0 0.3
09:23 13.3 8.2 71 1023.4 19.7 E 24.4 0.0 0.3
09:25 13.4 8.0 70 1023.3 16.8 S 22.1 0.0 0.3
09:26 13.4 8.0 70 1023.3 15.2 S 22.1 0.0 0.3
09:27 13.4 8.0 70 1023.3 19.7 S 22.1 0.0 0.3
09:28 13.4 8.0 70 1023.6 19.7 SSW 22.1 0.0 0.3
09:29 13.4 8.0 70 1023.4 19.0 S 22.1 0.0 0.3
09:30 13.4 8.0 70 1023.4 17.4 SW 22.1 0.0 0.3
09:31 13.3 7.9 70 1023.8 13.0 SE 22.1 0.0 0.3
09:32 13.3 7.9 70 1023.8 12.1 W 22.1 0.0 0.3
09:33 13.2 7.9 70 1023.4 12.1 S 22.1 0.0 0.3
09:34 13.2 7.9 70 1023.4 12.1 S 22.1 0.0 0.3
09:35 13.2 7.9 70 1023.4 13.6 SW 19.7 0.0 0.3
09:36 13.2 7.9 70 1023.8 17.4 S 19.7 0.0 0.3
09:37 13.2 7.9 70 1023.4 17.4 S 19.7 0.0 0.3
09:38 13.2 7.9 70 1023.7 21.3 SE 21.3 0.0 0.3
09:40 13.3 7.9 70 1023.3 14.5 S 21.3 0.0 0.3
09:41 13.4 8.0 70 1023.5 16.8 SE 21.3 0.0 0.3
09:42 13.4 8.0 70 1023.8 17.4 SW 21.3 0.0 0.3
09:43 13.4 8.0 70 1023.6 18.3 S 21.3 0.0 0.3
09:44 13.4 8.0 70 1023.6 20.6 SW 21.3 0.0 0.3
09:45 13.4 8.0 70 1023.7 19.0 S 21.3 0.0 0.3
09:46 13.4 8.0 70 1023.6 15.9 SW 21.3 0.0 0.3
09:47 13.4 8.0 70 1023.5 19.7 SW 21.3 0.0 0.3
09:48 13.3 7.7 69 1023.6 21.3 SW 21.3 0.0 0.3
09:49 13.3 7.7 69 1023.5 21.3 S 21.3 0.0 0.3
09:50 13.3 7.7 69 1023.6 21.3 S 21.3 0.0 0.3
09:51 13.3 7.7 69 1023.7 19.0 S 21.3 0.0 0.3
09:52 13.4 7.8 69 1023.8 19.0 S 21.3 0.0 0.3
09:53 13.4 7.8 69 1023.6 18.3 S 21.3 0.0 0.3
09:55 13.6 8.0 69 1023.8 20.6 S 22.1 0.0 0.3
09:56 13.6 8.0 69 1023.5 17.4 SW 22.1 0.0 0.3
09:57 13.6 8.0 69 1023.8 18.3 S 22.1 0.0 0.3
09:58 13.7 8.1 69 1023.9 19.0 S 22.1 0.0 0.3
09:59 13.7 8.1 69 1023.9 15.9 S 22.1 0.0 0.3
10:00 13.7 8.1 69 1023.8 15.9 S 22.1 0.0 0.3
10:01 13.7 8.1 69 1023.6 15.9 S 22.1 0.0 0.3
10:02 13.7 8.1 69 1023.8 15.9 S 22.1 0.0 0.3
10:03 13.7 8.1 69 1023.8 15.9 S 22.1 0.0 0.3
10:04 13.7 8.1 69 1023.8 15.9 S 22.1 0.0 0.3
10:05 13.7 8.1 69 1023.9 15.9 S 20.6 0.0 0.3
10:06 13.7 8.1 69 1023.7 15.9 S 19.0 0.0 0.3
10:07 13.8 7.3 65 1023.6 18.3 S 19.0 0.0 0.3
10:09 13.7 7.5 66 1023.8 22.1 S 22.1 0.0 0.3
10:10 13.7 7.5 66 1023.8 19.7 SW 22.1 0.0 0.3
10:11 13.7 7.5 66 1023.7 18.3 SW 22.1 0.0 0.3
10:12 13.7 7.5 66 1024.1 15.2 S 22.1 0.0 0.3
10:13 13.8 7.6 66 1024.0 22.1 SW 22.1 0.0 0.3
10:14 13.8 7.6 66 1023.9 22.1 S 22.1 0.0 0.3
10:15 13.8 7.6 66 1024.0 20.6 SW 22.1 0.0 0.3
10:16 13.8 7.3 65 1024.0 19.0 S 22.1 0.0 0.3
10:17 13.8 7.3 65 1024.0 22.1 S 22.1 0.0 0.3
10:18 13.8 7.3 65 1024.0 19.0 SW 22.1 0.0 0.3
10:19 13.8 7.3 65 1023.9 19.0 SW 22.1 0.0 0.3
10:20 13.7 7.0 64 1024.0 20.6 S 22.1 0.0 0.3
10:21 13.8 7.1 64 1024.0 19.7 S 22.1 0.0 0.3
10:22 13.8 7.3 65 1024.1 24.4 S 24.4 0.0 0.3
10:23 13.9 7.4 65 1024.1 21.3 S 24.4 0.0 0.3
10:25 14.0 7.3 64 1024.0 17.4 SE 24.4 0.0 0.3
10:26 14.0 7.3 64 1024.0 15.2 SE 24.4 0.0 0.3
10:27 14.0 7.3 64 1024.0 15.9 SW 24.4 0.0 0.3
10:28 14.0 7.3 64 1024.0 15.9 SW 24.4 0.0 0.3
10:29 14.0 7.3 64 1023.9 13.6 S 24.4 0.0 0.3
10:30 14.0 7.3 64 1023.9 10.7 SW 24.4 0.0 0.3
10:31 14.0 7.3 64 1024.1 15.2 W 24.4 0.0 0.3
10:32 14.0 7.3 64 1023.9 15.2 S 24.4 0.0 0.3
10:33 13.9 7.0 63 1024.2 12.1 WSW 21.3 0.0 0.3
10:34 13.9 7.0 63 1024.0 15.2 SW 20.6 0.0 0.3
10:35 14.0 7.3 64 1023.9 24.4 SE 24.4 0.0 0.3
10:36 14.0 7.1 63 1024.0 18.3 S 24.4 0.0 0.3
10:37 14.0 7.1 63 1024.1 17.4 SW 24.4 0.0 0.3
10:38 14.0 7.1 63 1024.0 17.4 S 24.4 0.0 0.3
10:40 14.1 7.2 63 1024.1 22.8 S 24.4 0.0 0.3
10:41 14.1 6.9 62 1023.8 19.0 SW 24.4 0.0 0.3
10:42 14.0 6.8 62 1024.4 18.3 SW 24.4 0.0 0.3
10:43 14.0 6.8 62 1024.1 21.3 SW 24.4 0.0 0.3
10:44 14.0 6.8 62 1024.2 21.3 SW 24.4 0.0 0.3
10:45 13.9 7.0 63 1024.2 19.7 SW 24.4 0.0 0.3
10:46 13.8 6.9 63 1024.0 16.8 S 22.8 0.0 0.3
10:47 13.8 6.9 63 1024.2 15.2 SW 22.8 0.0 0.3
10:48 13.8 7.1 64 1024.1 15.2 SW 22.8 0.0 0.3
10:49 13.8 7.1 64 1024.2 20.6 S 22.8 0.0 0.3
10:50 13.8 7.1 64 1024.1 16.8 SW 22.8 0.0 0.3
10:51 13.9 7.2 64 1024.3 18.3 SW 22.8 0.0 0.3
10:52 14.1 7.6 65 1024.3 20.6 S 22.8 0.0 0.3
10:54 14.3 7.8 65 1024.1 19.7 SW 22.1 0.0 0.3
10:55 14.3 7.6 64 1024.4 19.7 SW 22.1 0.0 0.3
10:56 14.3 7.6 64 1024.3 21.3 SW 22.1 0.0 0.3
10:57 14.3 7.6 64 1024.3 21.3 S 22.1 0.0 0.3
10:58 14.2 7.5 64 1024.2 20.6 S 22.1 0.0 0.3
10:59 14.3 7.6 64 1024.5 15.9 SE 22.1 0.0 0.3
11:00 14.3 7.6 64 1024.4 15.9 SE 22.1 0.0 0.3
11:01 14.3 7.6 64 1024.3 15.9 SE 22.1 0.0 0.3
11:02 14.3 7.6 64 1024.3 15.9 SE 22.1 0.0 0.3
11:03 14.4 7.7 64 1024.4 18.3 S 22.1 0.0 0.3
11:04 14.4 7.7 64 1024.5 15.9 SW 21.3 0.0 0.3
11:05 14.4 7.7 64 1024.6 19.7 S 21.3 0.0 0.3
11:06 14.4 7.7 64 1024.4 19.7 S 21.3 0.0 0.3
11:07 14.3 7.4 63 1024.2 15.9 SW 20.6 0.0 0.3
11:09 14.2 7.3 63 1024.5 15.2 SW 19.7 0.0 0.3
11:10 14.1 7.2 63 1024.6 15.9 S 19.7 0.0 0.3
11:11 14.0 7.3 64 1024.3 18.3 S 19.7 0.0 0.3
11:12 14.0 7.3 64 1024.4 18.3 SW 19.7 0.0 0.3
11:13 14.0 7.3 64 1024.6 15.9 S 19.7 0.0 0.3
11:14 13.9 7.2 64 1024.6 15.2 SW 19.7 0.0 0.3
11:15 13.8 7.1 64 1024.5 15.2 SSW 19.7 0.0 0.3
11:16 13.8 7.1 64 1024.6 16.8 S 18.3 0.0 0.3
11:17 13.8 7.3 65 1024.5 16.8 WSW 18.3 0.0 0.3
11:18 13.8 7.3 65 1024.6 18.3 S 18.3 0.0 0.3
11:19 13.8 7.3 65 1024.6 18.3 S 18.3 0.0 0.3
11:20 13.8 7.3 65 1024.7 19.0 S 19.0 0.0 0.3
11:21 13.8 7.6 66 1024.5 11.4 SW 19.0 0.0 0.3
11:22 13.8 7.3 65 1024.8 14.5 SW 19.0 0.0 0.3
11:23 13.8 7.3 65 1024.4 15.9 SW 19.0 0.0 0.3
11:24 13.8 6.9 63 1024.6 14.5 S 19.0 0.0 0.3
11:25 13.9 7.0 63 1024.7 13.6 SW 19.0 0.0 0.3
11:26 13.9 7.2 64 1024.4 13.0 S 19.0 0.0 0.3
11:27 14.0 7.3 64 1024.7 20.6 SW 20.6 0.0 0.3
11:29 14.1 7.6 65 1024.5 13.6 S 20.6 0.0 0.3
11:30 14.2 7.5 64 1024.8 18.3 WSW 20.6 0.0 0.3
11:31 14.2 7.3 63 1024.6 16.8 S 20.6 0.0 0.3
11:32 14.1 7.2 63 1024.7 22.8 SSW 22.8 0.0 0.3
11:33 14.1 6.9 62 1024.7 22.8 SSE 22.8 0.0 0.3
11:34 14.1 6.9 62 1024.9 19.0 S 22.8 0.0 0.3
11:35 14.0 6.8 62 1024.7 17.4 S 22.8 0.0 0.3
11:36 14.0 6.8 62 1024.6 17.4 S 22.8 0.0 0.3
11:37 13.9 6.5 61 1024.6 18.3 S 22.8 0.0 0.3
11:38 13.9 6.5 61 1025.1 22.8 S 22.8 0.0 0.3
11:39 13.9 6.5 61 1024.8 17.4 SW 22.8 0.0 0.3
11:40 13.8 6.4 61 1024.7 15.2 S 22.8 0.0 0.3
11:41 13.8 6.4 61 1024.7 12.1 S 22.8 0.0 0.3
11:42 13.8 6.6 62 1025.0 17.4 S 22.8 0.0 0.3
11:44 14.1 7.4 64 1024.7 13.6 S 22.8 0.0 0.3
11:45 14.2 7.5 64 1024.9 16.8 SE 22.8 0.0 0.3
11:46 14.4 7.7 64 1024.9 19.7 SE 22.8 0.0 0.3
11:47 14.4 7.7 64 1024.8 17.4 SW 22.8 0.0 0.3
11:48 14.4 7.5 63 1024.9 21.3 SE 21.3 0.0 0.3
11:49 14.3 7.4 63 1024.9 17.4 S 21.3 0.0 0.3
11:50 14.3 7.4 63 1024.8 19.0 SW 21.3 0.0 0.3
11:51 14.3 7.4 63 1025.3 20.6 S 21.3 0.0 0.3
11:52 14.3 7.4 63 1024.9 15.2 S 21.3 0.0 0.3
11:53 14.2 7.3 63 1024.8 22.8 S 22.8 0.0 0.3
11:54 14.2 7.3 63 1025.0 19.7 SW 22.8 0.0 0.3
11:55 14.2 7.0 62 1025.0 20.6 S 22.8 0.0 0.3
11:56 14.1 7.2 63 1024.9 23.5 S 23.5 0.0 0.3
11:57 14.0 7.1 63 1024.9 23.5 S 23.5 0.0 0.3
11:58 13.9 7.0 63 1025.0 18.3 SW 23.5 0.0 0.3
11:59 13.9 7.2 64 1025.1 24.4 S 24.4 0.0 0.3
12:01 13.9 7.2 64 1025.1 24.4 S 24.4 0.0 0.3
12:02 14.1 7.4 64 1025.0 21.3 SE 24.4 0.0 0.3
12:03 14.1 7.2 63 1025.1 22.1 S 24.4 0.0 0.3
12:04 14.1 7.2 63 1025.0 22.1 SW 24.4 0.0 0.3
12:05 14.1 7.2 63 1025.1 22.1 S 24.4 0.0 0.3
12:06 14.2 7.3 63 1025.0 22.8 S 24.4 0.0 0.3
12:07 14.2 7.0 62 1025.0 21.3 S 24.4 0.0 0.3
12:08 14.2 7.3 63 1025.1 19.7 SE 24.4 0.0 0.3
12:09 14.2 7.3 63 1025.0 14.5 S 24.4 0.0 0.3
12:10 14.2 7.5 64 1024.9 10.7 S 24.4 0.0 0.3
12:11 14.3 7.6 64 1024.8 16.8 S 24.4 0.0 0.3
12:12 14.4 7.7 64 1025.2 17.4 S 24.4 0.0 0.3
12:13 14.4 7.5 63 1024.9 17.4 SW 22.8 0.0 0.3
12:14 14.4 7.5 63 1025.4 12.1 S 22.8 0.0 0.3
12:15 14.5 7.5 63 1025.2 23.5 S 23.5 0.0 0.3
12:16 14.5 7.5 63 1025.1 18.3 S 23.5 0.0 0.3
12:18 14.4 7.2 62 1025.2 19.0 S 23.5 0.0 0.3
12:19 14.4 7.2 62 1025.2 21.3 S 23.5 0.0 0.3
12:20 14.4 7.2 62 1024.8 17.4 S 23.5 0.0 0.3
12:21 14.4 7.5 63 1025.2 15.9 S 23.5 0.0 0.3
12:22 14.5 7.5 63 1025.1 22.8 SW 23.5 0.0 0.3
12:23 14.5 7.5 63 1025.1 22.8 SW 23.5 0.0 0.3
12:24 14.4 7.2 62 1025.2 20.6 SE 23.5 0.0 0.3
12:25 14.4 7.2 62 1025.2 20.6 S 22.8 0.0 0.3
12:26 14.3 7.1 62 1025.3 21.3 S 22.8 0.0 0.3
12:27 14.2 7.0 62 1025.1 21.3 S 22.8 0.0 0.3
12:28 14.1 6.9 62 1025.3 15.2 S 22.8 0.0 0.3
12:29 14.1 7.2 63 1025.0 25.1 SW 25.1 0.0 0.3
12:30 14.1 7.2 63 1025.1 16.8 SE 25.1 0.0 0.3
12:31 14.0 7.1 63 1025.2 18.3 SW 25.1 0.0 0.3
12:32 14.0 7.1 63 1025.3 19.7 S 25.1 0.0 0.3
12:34 14.3 7.6 64 1025.3 16.8 S 25.1 0.0 0.3
12:35 14.4 7.7 64 1025.3 19.7 S 25.1 0.0 0.3
12:36 14.4 7.5 63 1025.1 18.3 SW 25.1 0.0 0.3
12:37 14.4 7.5 63 1025.3 19.7 S 25.1 0.0 0.3
12:38 14.3 7.4 63 1025.3 21.3 S 25.1 0.0 0.3
12:39 14.2 7.0 62 1025.4 23.5 S 23.5 0.0 0.3
12:40 14.2 7.3 63 1025.3 17.4 S 23.5 0.0 0.3
12:41 14.3 7.4 63 1025.4 15.9 W 23.5 0.0 0.3
12:42 14.3 7.4 63 1025.3 18.3 SW 23.5 0.0 0.3
12:43 14.3 7.4 63 1025.3 18.3 SW 23.5 0.0 0.3
12:44 14.3 7.4 63 1025.2 20.6 S 23.5 0.0 0.3
12:45 14.3 7.4 63 1025.2 20.6 SW 23.5 0.0 0.3
12:46 14.3 7.4 63 1025.4 16.8 SW 23.5 0.0 0.3
12:47 14.3 7.4 63 1025.3 21.3 SW 23.5 0.0 0.3
12:49 14.4 7.2 62 1025.4 15.9 SE 23.5 0.0 0.3
12:50 14.4 7.2 62 1025.4 19.7 S 21.3 0.0 0.3
12:51 14.4 7.2 62 1025.4 22.8 S 22.8 0.0 0.3
12:52 14.4 7.0 61 1025.5 22.8 S 22.8 0.0 0.3
12:53 14.5 7.3 62 1025.5 18.3 S 22.8 0.0 0.3
12:54 14.7 7.3 61 1025.5 22.8 S 23.5 0.0 0.3
12:55 14.7 7.3 61 1025.4 21.3 SW 23.5 0.0 0.3
12:56 14.7 7.3 61 1025.4 19.7 S 23.5 0.0 0.3
12:57 14.6 7.2 61 1025.5 19.0 S 23.5 0.0 0.3
12:58 14.6 7.2 61 1025.5 22.8 S 23.5 0.0 0.3
12:59 14.6 6.9 60 1025.3 22.8 SW 23.5 0.0 0.3
13:00 14.6 7.2 61 1025.4 13.6 SSW 23.5 0.0 0.3
13:01 14.6 7.2 61 1025.5 13.6 SSW 23.5 0.0 0.3
13:02 14.6 7.2 61 1025.7 13.6 SSW 23.5 0.0 0.3
13:03 14.6 7.2 61 1025.3 13.6 SSW 23.5 0.0 0.3
13:04 14.6 7.2 61 1025.3 13.6 SSW 22.8 0.0 0.3
13:06 14.8 7.1 60 1025.3 19.7 S 22.8 0.0 0.3
13:07 14.8 7.1 60 1025.2 15.9 SW 22.8 0.0 0.3
13:08 14.7 7.3 61 1025.7 19.7 SW 22.8 0.0 0.3
13:09 14.6 7.2 61 1025.4 18.3 S 21.3 0.0 0.3
13:10 14.5 7.1 61 1025.7 19.0 SW 21.3 0.0 0.3
13:11 14.5 7.1 61 1025.7 19.0 SW 21.3 0.0 0.3
13:12 14.4 7.2 62 1025.5 13.0 S 24.4 0.0 0.3
13:13 14.3 7.1 62 1025.5 15.2 S 24.4 0.0 0.3
13:14 14.3 7.1 62 1025.6 22.8 S 24.4 0.0 0.3
13:15 14.2 7.0 62 1025.5 15.9 S 24.4 0.0 0.3
13:16 14.2 7.0 62 1025.7 22.1 SW 24.4 0.0 0.3
13:17 14.2 7.0 62 1025.7 22.1 SW 24.4 0.0 0.3
13:18 14.0 6.8 62 1025.7 15.9 SW 24.4 0.0 0.3
13:19 14.0 6.8 62 1025.5 15.9 W 24.4 0.0 0.3
13:20 14.0 6.8 62 1025.6 17.4 SW 24.4 0.0 0.3
13:21 14.0 6.8 62 1025.7 15.2 W 24.4 0.0 0.3
13:22 13.9 7.0 63 1025.5 13.0 SW 22.8 0.0 0.3
13:23 13.9 7.0 63 1025.5 14.5 SW 22.8 0.0 0.3
13:24 13.9 6.7 62 1025.4 16.8 S 22.8 0.0 0.3
13:25 13.9 6.7 62 1025.6 17.4 SW 22.1 0.0 0.3
13:26 13.9 6.7 62 1025.5 15.9 WSW 22.1 0.0 0.3
13:27 13.9 6.7 62 1025.6 15.2 W 22.1 0.0 0.3
13:28 14.2 7.3 63 1025.8 15.9 SW 22.1 0.0 0.3
13:29 14.3 7.1 62 1025.6 22.8 SW 22.8 0.0 0.3
13:31 14.5 7.3 62 1025.8 17.4 S 22.8 0.0 0.3
13:32 14.6 7.2 61 1025.4 19.0 SW 22.8 0.0 0.3
13:33 14.7 7.5 62 1025.7 17.4 S 22.8 0.0 0.3
13:34 14.9 7.7 62 1025.5 14.5 SW 22.8 0.0 0.3
13:35 14.9 7.7 62 1025.4 14.5 SW 22.8 0.0 0.3
13:36 15.1 7.6 61 1025.5 15.2 S 22.8 0.0 0.3
13:37 15.1 7.6 61 1025.5 16.8 S 22.8 0.0 0.3
13:38 15.2 7.7 61 1025.7 14.5 SW 22.8 0.0 0.3
13:39 15.3 8.1 62 1025.7 13.6 S 22.8 0.0 0.3
13:40 15.4 8.2 62 1025.6 16.8 SW 20.6 0.0 0.3
13:41 15.4 7.9 61 1025.8 19.7 S 20.6 0.0 0.3
13:42 15.3 7.6 60 1025.8 19.7 S 19.7 0.0 0.3
13:43 15.2 7.2 59 1025.7 19.0 SW 19.7 0.0 0.3
13:45 15.1 7.2 59 1025.8 23.5 SE 23.5 0.0 0.3
13:46 15.2 7.0 58 1026.1 25.9 S 25.9 0.0 0.3
13:47 15.2 7.0 58 1025.9 15.9 S 25.9 0.0 0.3
13:48 15.2 7.0 58 1026.1 16.8 S 25.9 0.0 0.3
13:49 15.2 7.2 59 1025.8 16.8 S 25.9 0.0 0.3
13:50 15.2 7.2 59 1025.9 16.8 S 25.9 0.0 0.3
13:51 15.1 6.6 57 1025.7 22.8 S 25.9 0.0 0.3
13:52 15.0 6.6 57 1025.9 19.0 S 25.9 0.0 0.3
13:53 15.0 6.6 57 1025.8 16.8 SW 25.9 0.0 0.3
13:54 14.9 6.7 58 1025.8 13.6 SW 25.9 0.0 0.3
13:55 14.9 6.7 58 1025.7 16.8 S 25.9 0.0 0.3
13:56 14.9 6.7 58 1025.8 13.0 S 25.9 0.0 0.3
13:57 14.8 6.4 57 1025.8 22.1 SSW 22.8 0.0 0.3
13:58 14.6 5.7 55 1025.8 21.3 SW 22.8 0.0 0.3
14:00 14.6 5.7 55 1025.7 19.0 SW 22.8 0.0 0.3
14:01 14.6 5.7 55 1025.6 19.0 SW 22.1 0.0 0.3
14:02 14.6 5.7 55 1025.9 19.0 SW 22.1 0.0 0.3
14:03 14.6 5.7 55 1025.9 19.0 SW 22.1 0.0 0.3
14:04 14.6 5.7 55 1025.7 19.0 SW 22.1 0.0 0.3
14:05 14.6 5.7 55 1025.7 19.0 SW 22.1 0.0 0.3
14:06 14.7 7.0 60 1025.9 20.6 SE 22.1 0.0 0.3
14:07 14.7 7.0 60 1025.9 22.1 SW 22.1 0.0 0.3
14:08 14.8 7.1 60 1026.2 25.1 S 25.1 0.0 0.3
14:09 14.8 7.1 60 1025.9 25.1 S 25.1 0.0 0.3
14:10 14.8 7.1 60 1026.2 18.3 SSW 25.1 0.0 0.3
14:11 14.9 7.2 60 1026.0 19.7 S 25.1 0.0 0.3
14:12 15.0 7.1 59 1025.8 22.8 SSW 25.1 0.0 0.3
14:13 14.9 6.7 58 1025.9 22.8 S 25.1 0.0 0.3
14:14 14.9 6.5 57 1026.0 15.9 SW 25.1 0.0 0.3
14:16 14.8 6.9 59 1026.1 15.9 SSW 25.1 0.0 0.3
14:17 14.8 6.9 59 1026.1 24.4 S 25.1 0.0 0.3
14:18 14.8 6.9 59 1026.1 20.6 SW 25.1 0.0 0.3
14:19 14.9 7.0 59 1026.1 23.5 S 24.4 0.0 0.3
14:20 14.9 7.2 60 1025.8 22.1 SW 24.4 0.0 0.3
14:21 14.9 7.2 60 1026.1 22.1 SW 24.4 0.0 0.3
14:22 14.9 7.2 60 1026.4 22.1 SW 24.4 0.0 0.3
14:23 15.0 7.3 60 1026.1 22.8 S 24.4 0.0 0.3
14:24 14.9 7.2 60 1026.2 21.3 SW 24.4 0.0 0.3
14:25 14.9 7.2 60 1026.2 21.3 SW 24.4 0.0 0.3
14:26 14.7 7.0 60 1026.2 19.0 SW 24.4 0.0 0.3
14:27 14.6 7.2 61 1026.3 22.8 SW 24.4 0.0 0.3
14:28 14.5 7.1 61 1026.3 22.1 S 24.4 0.0 0.3
14:30 14.3 6.9 61 1026.2 22.1 SW 23.5 0.0 0.3
14:31 14.4 7.0 61 1026.3 22.1 S 23.5 0.0 0.3
14:32 14.4 7.0 61 1026.1 22.1 S 23.5 0.0 0.3
14:33 14.4 7.2 62 1026.1 22.1 SW 23.5 0.0 0.3
14:34 14.4 7.0 61 1026.2 22.1 S 23.5 0.0 0.3
14:35 14.4 7.0 61 1026.3 18.3 S 23.5 0.0 0.3
14:36 14.4 7.0 61 1026.4 18.3 S 23.5 0.0 0.3
14:37 14.4 7.0 61 1026.1 16.8 SW 23.5 0.0 0.3
14:38 14.4 7.0 61 1026.2 20.6 SW 23.5 0.0 0.3
14:39 14.4 6.7 60 1026.4 20.6 SW 23.5 0.0 0.3
14:40 14.3 6.6 60 1026.3 16.8 SW 23.5 0.0 0.3
14:41 14.3 6.6 60 1026.6 15.2 SW 22.1 0.0 0.3
14:42 14.2 6.6 60 1026.5 19.7 S 22.1 0.0 0.3
14:43 14.3 6.9 61 1026.5 15.9 SW 22.1 0.0 0.3
14:45 14.4 6.7 60 1026.4 15.9 S 20.6 0.0 0.3
14:46 14.4 6.7 60 1026.4 20.6 SW 20.6 0.0 0.3
14:47 14.4 6.7 60 1026.4 20.6 SW 20.6 0.0 0.3
14:48 14.4 6.7 60 1026.4 16.8 S 20.6 0.0 0.3
14:49 14.4 6.7 60 1026.4 18.3 SW 20.6 0.0 0.3
14:50 14.4 6.7 60 1026.6 18.3 S 20.6 0.0 0.3
14:51 14.5 6.8 60 1026.7 21.3 S 21.3 0.0 0.3
14:52 14.6 6.9 60 1026.5 17.4 S 21.3 0.0 0.3
14:53 14.6 6.9 60 1026.5 22.1 SE 22.1 0.0 0.3
14:54 14.6 6.9 60 1026.6 22.1 S 22.1 0.0 0.3
14:55 14.6 6.9 60 1026.6 12.1 W 22.1 0.0 0.3
14:56 14.7 7.3 61 1026.6 22.8 SW 24.4 0.0 0.3
14:57 14.9 7.5 61 1026.4 19.7 S 24.4 0.0 0.3
14:59 15.4 8.2 62 1026.5 19.7 S 24.4 0.0 0.3
15:00 15.4 8.2 62 1026.8 19.7 S 24.4 0.0 0.3
15:01 15.4 8.2 62 1026.7 19.7 S 24.4 0.0 0.3
15:02 15.4 8.2 62 1026.7 19.7 S 24.4 0.0 0.3
15:03 15.4 8.2 62 1026.4 19.7 S 24.4 0.0 0.3
15:04 15.4 8.2 62 1026.6 19.7 S 24.4 0.0 0.3
15:05 15.4 8.2 62 1026.7 19.7 S 24.4 0.0 0.3
15:06 15.5 7.5 59 1026.7 23.5 WSW 23.5 0.0 0.3
15:07 15.4 7.7 60 1026.5 13.0 SW 23.5 0.0 0.3
15:08 15.2 7.2 59 1026.6 21.3 SW 23.5 0.0 0.3
15:09 15.1 6.9 58 1026.6 19.0 SW 23.5 0.0 0.3
15:10 15.0 6.8 58 1026.7 19.0 S 23.5 0.0 0.3
15:11 15.0 7.1 59 1026.9 16.8 SW 23.5 0.0 0.3
15:12 14.8 6.9 59 1026.6 18.3 S 23.5 0.0 0.3
15:13 14.7 6.8 59 1026.8 18.3 SW 23.5 0.0 0.3
15:14 14.5 6.6 59 1026.9 13.6 SW 23.5 0.0 0.3
15:16 14.3 6.4 59 1026.6 17.4 SW 23.5 0.0 0.3
15:17 14.3 6.4 59 1026.7 17.4 SW 22.1 0.0 0.3
15:18 14.2 6.3 59 1026.9 11.4 SW 21.3 0.0 0.3
15:19 14.2 6.3 59 1026.8 15.9 S 19.0 0.0 0.3
15:20 14.2 6.3 59 1026.8 13.6 SW 19.0 0.0 0.3
15:21 14.2 6.6 60 1026.9 13.0 W 19.0 0.0 0.3
15:22 14.2 6.6 60 1026.9 18.3 S 19.0 0.0 0.3
15:23 14.2 6.6 60 1026.9 18.3 SW 19.0 0.0 0.3
15:24 14.2 6.3 59 1027.1 14.5 S 19.0 0.0 0.3
15:25 14.1 6.5 60 1026.7 12.1 SW 18.3 0.0 0.3
15:26 14.1 6.5 60 1027.1 18.3 S 18.3 0.0 0.3
15:27 14.1 6.5 60 1026.8 18.3 SW 18.3 0.0 0.3
15:29 14.0 6.4 60 1027.0 17.4 SW 19.0 0.0 0.3
15:30 14.0 6.4 60 1027.1 11.4 S 19.0 0.0 0.3
15:31 14.0 6.4 60 1026.9 12.1 SW 19.0 0.0 0.3
15:32 14.0 6.4 60 1027.0 12.1 SW 19.0 0.0 0.3
15:33 14.0 6.4 60 1027.1 13.6 SW 19.0 0.0 0.3
15:34 14.0 6.4 60 1027.2 15.2 SW 19.0 0.0 0.3
15:35 14.1 6.5 60 1027.2 17.4 S 19.0 0.0 0.3
15:36 14.0 6.4 60 1027.1 22.1 SW 22.1 0.0 0.3
15:37 14.0 6.4 60 1027.0 15.9 W 22.1 0.0 0.3
15:38 14.0 6.4 60 1027.2 15.9 SW 22.1 0.0 0.3
15:39 13.9 6.3 60 1027.2 19.0 S 22.1 0.0 0.3
15:40 13.9 6.3 60 1027.2 17.4 SW 22.1 0.0 0.3
15:41 13.9 6.5 61 1027.2 16.8 SW 22.1 0.0 0.3
15:43 14.1 6.7 61 1027.0 19.0 W 22.1 0.0 0.3
15:44 14.2 6.8 61 1027.3 19.0 S 22.1 0.0 0.3
15:45 14.4 7.0 61 1027.1 19.0 S 22.1 0.0 0.3
15:46 14.7 7.5 62 1027.1 23.5 S 23.5 0.0 0.3
15:47 14.8 7.6 62 1027.1 22.1 SW 23.5 0.0 0.3
15:48 14.8 7.6 62 1027.1 22.1 SW 23.5 0.0 0.3
15:49 15.1 7.9 62 1027.3 16.8 SW 23.5 0.0 0.3
15:50 15.1 7.9 62 1027.0 16.8 SW 23.5 0.0 0.3
15:51 15.2 7.5 60 1027.1 15.9 SW 23.5 0.0 0.3
15:52 15.3 7.6 60 1027.2 14.5 SW 23.5 0.0 0.3
15:53 15.4 7.7 60 1027.0 15.9 S 23.5 0.0 0.3
15:54 15.4 7.7 60 1027.0 15.9 S 23.5 0.0 0.3
15:55 15.5 7.8 60 1027.2 13.0 SW 23.5 0.0 0.3
15:58 15.7 8.0 60 1027.2 17.4 SW 22.1 0.0 0.3
15:59 15.8 8.1 60 1027.2 18.3 SW 19.7 0.0 0.3
16:00 15.8 8.1 60 1027.3 18.3 SW 19.7 0.0 0.3
16:01 15.8 8.1 60 1027.3 18.3 SW 19.7 0.0 0.3
16:02 15.8 8.1 60 1027.4 18.3 SW 19.7 0.0 0.3
16:03 15.8 8.1 60 1027.4 18.3 SW 19.7 0.0 0.3
16:04 15.8 8.1 60 1027.3 18.3 SW 19.7 0.0 0.3
16:05 15.8 8.1 60 1027.4 18.3 SW 19.7 0.0 0.3
16:06 15.7 8.0 60 1027.3 25.9 S 25.9 0.0 0.3
16:07 15.7 8.0 60 1027.4 19.0 SW 25.9 0.0 0.3
16:08 15.5 7.3 58 1027.2 18.3 S 25.9 0.0 0.3
16:09 15.5 7.5 59 1027.4 19.0 S 25.9 0.0 0.3
16:10 15.5 7.3 58 1027.1 20.6 SW 25.9 0.0 0.3
16:12 15.5 7.8 60 1027.2 20.6 S 25.9 0.0 0.3
16:13 15.4 7.4 59 1027.2 20.6 S 25.9 0.0 0.3
16:14 15.4 7.4 59 1027.1 22.8 SW 25.9 0.0 0.3
16:15 15.4 7.2 58 1027.2 19.7 SW 25.9 0.0 0.3
16:16 15.3 7.1 58 1027.2 19.7 S 22.8 0.0 0.3
16:17 15.3 6.8 57 1027.4 20.6 S 22.8 0.0 0.3
16:18 15.2 7.0 58 1027.4 22.1 S 22.8 0.0 0.3
16:19 15.2 7.0 58 1027.2 22.1 S 22.8 0.0 0.3
16:20 15.2 7.0 58 1027.1 19.7 S 22.8 0.0 0.3
16:21 15.2 7.0 58 1027.2 19.7 S 22.8 0.0 0.3
16:22 15.1 7.2 59 1027.3 20.6 SW 22.8 0.0 0.3
16:23 15.0 6.8 58 1027.3 20.6 W 22.8 0.0 0.3
16:24 14.9 7.0 59 1027.4 13.6 S 22.8 0.0 0.3
16:25 14.8 7.1 60 1027.4 15.2 W 22.1 0.0 0.3
16:26 14.8 7.1 60 1027.4 19.0 W 22.1 0.0 0.3
16:28 14.7 7.0 60 1027.4 19.7 S 22.1 0.0 0.3
16:29 14.7 7.0 60 1027.5 15.9 SW 20.6 0.0 0.3
16:30 14.7 7.3 61 1027.4 12.1 SW 20.6 0.0 0.3
16:31 14.7 7.3 61 1027.6 10.7 SW 20.6 0.0 0.3
16:32 14.7 7.0 60 1027.3 16.8 SW 20.6 0.0 0.3
16:33 14.7 7.0 60 1027.4 17.4 NW 20.6 0.0 0.3
16:34 14.6 6.9 60 1027.5 15.9 S 20.6 0.0 0.3
16:35 14.6 6.9 60 1027.6 19.0 SW 20.6 0.0 0.3
16:36 14.4 6.7 60 1027.5 15.2 SW 20.6 0.0 0.3
16:37 14.4 6.7 60 1027.5 19.0 SW 19.7 0.0 0.3
16:38 14.3 6.6 60 1027.6 23.5 S 23.5 0.0 0.3
16:39 14.2 6.6 60 1027.7 20.6 S 23.5 0.0 0.3
16:40 14.1 6.5 60 1027.4 19.7 SW 23.5 0.0 0.3
16:41 14.1 6.5 60 1027.5 19.7 S 23.5 0.0 0.3
16:42 14.0 6.4 60 1027.5 19.0 SW 23.5 0.0 0.3
16:44 14.1 6.5 60 1027.5 20.6 SW 23.5 0.0 0.3
16:45 14.1 6.5 60 1027.6 19.0 SW 23.5 0.0 0.3
16:46 14.1 6.5 60 1027.6 20.6 SW 23.5 0.0 0.3
16:47 14.0 6.1 59 1027.6 20.6 S 23.5 0.0 0.3
16:48 14.0 6.1 59 1027.4 18.3 S 20.6 0.0 0.3
16:49 14.0 5.9 58 1027.4 18.3 S 20.6 0.0 0.3
16:50 14.0 5.9 58 1027.5 22.1 W 22.1 0.0 0.3
16:51 14.0 5.9 58 1027.5 13.0 SW 22.1 0.0 0.3
16:52 14.0 6.1 59 1027.6 17.4 SE 22.1 0.0 0.3
16:53 14.0 6.4 60 1027.5 16.8 SW 22.1 0.0 0.3
16:54 14.1 6.5 60 1027.5 19.0 SW 22.1 0.0 0.3
16:55 14.2 6.6 60 1027.7 20.6 W 22.1 0.0 0.3
16:56 14.3 6.6 60 1027.7 22.1 W 22.1 0.0 0.3
16:58 14.6 6.9 60 1027.6 14.5 SW 22.1 0.0 0.3
16:59 14.7 7.0 60 1027.7 21.3 S 22.1 0.0 0.3
17:00 14.7 7.0 60 1027.7 21.3 S 22.1 0.0 0.3
17:01 14.7 7.0 60 1027.6 21.3 S 22.1 0.0 0.3
17:02 15.0 7.1 59 1027.5 21.3 SW 22.1 0.0 0.3
17:03 15.0 6.8 58 1027.7 15.9 S 22.1 0.0 0.3
17:04 15.0 6.8 58 1027.6 15.9 S 22.1 0.0 0.3
17:05 15.0 6.6 57 1027.5 13.0 SW 22.1 0.0 0.3
17:06 14.9 6.5 57 1027.5 15.9 SW 22.1 0.0 0.3
17:07 14.9 6.5 57 1027.6 22.1 NE 22.1 0.0 0.3
17:08 14.9 6.5 57 1027.7 16.8 S 22.1 0.0 0.3
17:09 14.9 6.2 56 1027.7 23.5 S 23.5 0.0 0.3
17:10 14.9 5.9 55 1027.8 19.7 S 23.5 0.0 0.3
17:11 14.9 5.9 55 1027.7 15.9 S 23.5 0.0 0.3
17:12 14.9 5.9 55 1027.7 19.0 S 23.5 0.0 0.3
17:13 14.9 5.7 54 1027.6 19.0 SW 23.5 0.0 0.3
17:14 14.9 5.9 55 1027.9 15.9 S 23.5 0.0 0.3
17:15 14.9 5.9 55 1027.9 20.6 SW 23.5 0.0 0.3
17:16 14.9 5.9 55 1027.7 21.3 S 23.5 0.0 0.3
17:18 14.8 5.9 55 1027.7 15.9 S 23.5 0.0 0.3
17:19 14.8 5.9 55 1027.8 22.8 SW 23.5 0.0 0.3
17:20 14.7 5.8 55 1027.9 20.6 SW 22.8 0.0 0.3
17:21 14.7 6.0 56 1028.0 17.4 S 22.8 0.0 0.3
17:22 14.8 6.1 56 1027.7 14.5 WSW 22.8 0.0 0.3
17:23 14.8 6.1 56 1027.8 19.0 SW 22.8 0.0 0.3
17:24 14.8 6.4 57 1027.8 18.3 S 22.8 0.0 0.3
17:25 14.9 6.5 57 1028.0 20.6 SW 22.8 0.0 0.3
17:26 14.9 6.5 57 1027.9 18.3 SW 22.8 0.0 0.3
17:27 14.9 6.7 58 1027.8 20.6 SW 22.8 0.0 0.3
17:29 14.9 6.5 57 1028.0 15.2 SW 20.6 0.0 0.3
17:30 14.9 7.0 59 1028.0 19.0 S 20.6 0.0 0.3
17:31 15.0 7.1 59 1028.0 19.0 S 20.6 0.0 0.3
17:32 15.0 7.3 60 1028.2 13.6 S 20.6 0.0 0.3
17:33 15.0 7.3 60 1028.3 19.0 SW 20.6 0.0 0.3
17:34 14.9 7.2 60 1028.0 19.7 SW 25.9 0.0 0.3
17:35 14.8 7.1 60 1027.9 16.8 SW 25.9 0.0 0.3
17:36 14.7 7.0 60 1028.0 15.2 SW 25.9 0.0 0.3
17:37 14.6 6.9 60 1028.0 13.0 SW 25.9 0.0 0.3
17:38 14.5 6.8 60 1028.2 17.4 SW 25.9 0.0 0.3
17:39 14.4 6.7 60 1028.0 19.0 SW 25.9 0.0 0.3
17:40 14.4 6.7 60 1028.0 19.7 S 25.9 0.0 0.3
17:41 14.3 6.6 60 1028.1 18.3 W 25.9 0.0 0.3
17:42 14.3 6.6 60 1028.2 21.3 SW 25.9 0.0 0.3
17:43 14.3 6.6 60 1028.1 21.3 SW 25.9 0.0 0.3
17:45 14.0 6.6 61 1028.1 21.3 S 21.3 0.0 0.3
17:46 13.9 6.5 61 1028.0 19.0 SE 21.3 0.0 0.3
17:47 13.8 6.4 61 1028.0 15.9 SW 21.3 0.0 0.3
17:48 13.8 6.4 61 1027.9 19.0 SW 21.3 0.0 0.3
17:49 13.8 6.4 61 1028.2 19.0 SSW 21.3 0.0 0.3
17:50 13.7 6.3 61 1028.0 17.4 SW 21.3 0.0 0.3
17:51 13.7 6.3 61 1028.0 16.8 SW 21.3 0.0 0.3
17:52 13.7 6.3 61 1028.1 24.4 SW 24.4 0.0 0.3
17:53 13.7 6.3 61 1028.1 18.3 S 24.4 0.0 0.3
17:54 13.7 6.3 61 1028.2 18.3 S 24.4 0.0 0.3
17:55 13.6 6.2 61 1028.0 17.4 S 24.4 0.0 0.3
17:56 13.5 6.4 62 1028.0 15.9 W 24.4 0.0 0.3
17:57 13.6 6.5 62 1028.1 19.0 S 24.4 0.0 0.3
17:58 13.6 6.5 62 1028.0 16.8 SW 24.4 0.0 0.3
17:59 13.6 6.5 62 1028.2 16.8 S 24.4 0.0 0.3
18:00 13.6 6.5 62 1028.0 17.4 SW 24.4 0.0 0.3
18:02 13.6 6.7 63 1028.1 19.7 S 24.4 0.0 0.3
18:03 13.6 6.7 63 1028.0 19.7 SW 19.7 0.0 0.3
18:04 13.6 6.7 63 1028.2 19.7 E 19.7 0.0 0.3
18:05 13.5 6.6 63 1028.0 14.5 WSW 19.7 0.0 0.3
18:06 13.5 6.6 63 1028.1 19.0 S 19.7 0.0 0.3
18:07 13.5 6.6 63 1028.2 15.9 S 19.7 0.0 0.3
18:08 13.5 6.6 63 1028.0 19.0 W 19.7 0.0 0.3
18:09 13.5 6.6 63 1028.1 20.6 SW 20.6 0.0 0.3
18:10 13.5 6.6 63 1028.3 15.9 S 20.6 0.0 0.3
18:11 13.5 6.6 63 1028.1 15.9 S 20.6 0.0 0.3
18:12 13.4 6.5 63 1028.1 16.8 SW 20.6 0.0 0.3
18:13 13.4 6.5 63 1028.2 15.9 SW 20.6 0.0 0.3
18:14 13.4 6.7 64 1028.2 14.5 S 20.6 0.0 0.3
18:15 13.4 6.7 64 1028.1 15.2 SW 20.6 0.0 0.3
18:16 13.4 6.7 64 1028.3 16.8 SSW 20.6 0.0 0.3
18:17 13.3 6.6 64 1028.3 21.3 SW 21.3 0.0 0.3
18:19 13.4 6.7 64 1028.2 15.2 SW 21.3 0.0 0.3
18:20 13.4 6.7 64 1028.2 16.8 S 21.3 0.0 0.3
18:21 13.4 6.7 64 1028.4 16.8 SE 21.3 0.0 0.3
18:22 13.4 6.7 64 1028.2 20.6 W 21.3 0.0 0.3
18:23 13.4 6.7 64 1028.1 16.8 SW 21.3 0.0 0.3
18:24 13.4 6.7 64 1028.3 13.6 SE 21.3 0.0 0.3
18:25 13.4 6.7 64 1028.2 13.0 NW 21.3 0.0 0.3
18:26 13.3 6.6 64 1028.2 13.0 SW 21.3 0.0 0.3
18:27 13.4 6.7 64 1028.4 13.6 SW 21.3 0.0 0.3
18:28 13.4 7.0 65 1028.1 16.8 SW 20.6 0.0 0.3
18:29 13.4 7.0 65 1028.3 13.0 S 20.6 0.0 0.3
18:30 13.4 7.0 65 1028.1 15.2 SW 20.6 0.0 0.3
18:31 13.4 7.0 65 1028.1 12.1 SW 20.6 0.0 0.3
18:32 13.4 7.0 65 1028.5 10.7 SW 20.6 0.0 0.3
18:33 13.4 7.0 65 1028.5 10.7 SW 16.8 0.0 0.3
18:35 13.5 7.3 66 1028.3 15.9 SW 21.3 0.0 0.3
18:36 13.6 7.1 65 1028.3 13.0 W 21.3 0.0 0.3
18:37 13.7 7.2 65 1028.4 11.4 S 21.3 0.0 0.3
18:38 13.6 7.1 65 1028.5 14.5 S 21.3 0.0 0.3
18:39 13.6 7.1 65 1028.1 16.8 W 21.3 0.0 0.3
18:40 13.6 7.1 65 1028.3 13.0 S 21.3 0.0 0.3
18:41 13.6 7.1 65 1028.3 13.6 SW 21.3 0.0 0.3
18:42 13.6 6.9 64 1028.2 15.9 SW 21.3 0.0 0.3
18:43 13.6 6.9 64 1028.5 15.2 S 21.3 0.0 0.3
18:44 13.6 6.9 64 1028.2 19.0 S 21.3 0.0 0.3
18:45 13.6 6.9 64 1028.2 19.0 S 19.0 0.0 0.3
18:46 13.5 6.8 64 1028.2 17.4 SW 19.0 0.0 0.3
18:47 13.5 6.8 64 1028.4 16.8 S 19.0 0.0 0.3
18:48 13.4 6.7 64 1028.5 19.7 SSW 19.7 0.0 0.3
18:49 13.3 6.6 64 1028.4 14.5 SW 19.7 0.0 0.3
18:50 13.3 6.6 64 1028.2 13.0 SW 19.7 0.0 0.3
18:51 13.3 6.6 64 1028.5 14.5 SW 19.7 0.0 0.3
18:53 13.3 6.9 65 1028.3 17.4 SW 19.7 0.0 0.3
18:54 13.3 6.9 65 1028.5 17.4 S 19.7 0.0 0.3
18:55 13.3 6.9 65 1028.5 16.8 S 19.7 0.0 0.3
18:56 13.3 6.6 64 1028.5 22.1 WSW 22.1 0.0 0.3
18:57 13.2 6.5 64 1028.6 15.9 SW 22.1 0.0 0.3
18:58 13.2 6.5 64 1028.5 15.9 SW 22.1 0.0 0.3
18:59 13.2 6.5 64 1028.5 15.9 SW 22.1 0.0 0.3
19:00 13.2 6.5 64 1028.5 16.8 W 22.1 0.0 0.3
19:01 13.2 6.5 64 1028.7 16.8 W 22.1 0.0 0.3
19:02 13.2 6.5 64 1028.6 16.8 W 22.1 0.0 0.3
19:03 13.2 6.5 64 1028.6 16.8 W 22.1 0.0 0.3
19:04 13.2 6.5 64 1028.6 16.8 W 22.1 0.0 0.3
19:05 13.2 6.5 64 1028.7 16.8 W 22.1 0.0 0.3
19:06 13.0 6.6 65 1028.7 19.7 SW 22.1 0.0 0.3
19:07 13.0 6.6 65 1028.5 17.4 S 19.7 0.0 0.3
19:09 13.0 6.6 65 1028.6 14.5 W 19.7 0.0 0.3
19:10 12.9 6.5 65 1028.6 19.0 S 19.7 0.0 0.3
19:11 12.9 6.5 65 1028.5 15.2 SW 19.7 0.0 0.3
19:12 12.9 6.5 65 1028.7 19.0 S 19.7 0.0 0.3
19:13 12.9 6.5 65 1028.4 15.9 SW 19.7 0.0 0.3
19:14 12.9 6.5 65 1028.6 17.4 S 19.7 0.0 0.3
19:15 12.8 6.4 65 1028.4 17.4 WSW 19.7 0.0 0.3
19:16 12.8 6.4 65 1028.6 15.2 W 19.0 0.0 0.3
19:17 12.8 6.4 65 1028.5 16.8 SW 19.0 0.0 0.3
19:18 12.8 6.4 65 1028.7 15.2 SE 19.0 0.0 0.3
19:19 12.8 6.4 65 1028.5 8.3 SW 19.0 0.0 0.3
19:20 12.8 6.4 65 1028.6 14.5 SE 19.0 0.0 0.3
19:21 12.8 6.6 66 1028.5 13.0 S 19.0 0.0 0.3
19:22 12.8 6.6 66 1028.7 14.5 SW 19.0 0.0 0.3
19:23 12.8 6.6 66 1028.6 15.9 S 17.4 0.0 0.3
19:24 12.7 6.5 66 1028.8 18.3 SE 18.3 0.0 0.3
19:25 12.7 6.5 66 1028.6 15.2 SW 18.3 0.0 0.3
19:26 12.7 6.5 66 1028.6 18.3 SW 18.3 0.0 0.3
19:27 12.7 6.5 66 1028.6 16.8 SW 18.3 0.0 0.3
19:28 12.6 6.4 66 1028.5 20.6 S 20.6 0.0 0.3
19:29 12.6 6.4 66 1028.7 15.2 S 20.6 0.0 0.3
19:30 12.6 6.4 66 1028.4 15.2 SW 20.6 0.0 0.3
19:31 12.6 6.4 66 1028.7 14.5 S 20.6 0.0 0.3
19:32 12.6 6.4 66 1028.5 19.7 W 20.6 0.0 0.3
19:33 12.5 6.3 66 1028.4 15.2 SW 20.6 0.0 0.3
19:34 12.5 6.3 66 1028.5 14.5 SW 20.6 0.0 0.3
19:35 12.5 6.3 66 1028.3 15.9 SW 20.6 0.0 0.3
19:37 12.5 6.5 67 1028.6 15.9 SW 20.6 0.0 0.3
19:38 12.5 6.5 67 1028.4 14.5 SW 20.6 0.0 0.3
19:39 12.4 7.1 70 1028.6 17.4 SW 19.7 0.0 0.3
19:40 12.4 7.1 70 1028.5 17.4 SW 19.7 0.0 0.3
19:41 12.4 7.3 71 1028.6 14.5 S 19.7 0.0 0.3
19:42 12.4 7.3 71 1028.5 14.5 S 19.7 0.0 0.3
19:43 12.4 7.3 71 1028.7 10.7 SW 17.4 0.0 0.3
19:44 12.4 7.3 71 1028.6 19.0 S 19.0 0.0 0.3
19:45 12.4 7.3 71 1028.6 19.0 S 19.0 0.0 0.3
19:46 12.4 7.3 71 1028.8 13.0 W 19.0 0.0 0.3
19:47 12.3 7.2 71 1028.7 12.1 SW 19.0 0.0 0.3
19:48 12.3 7.2 71 1029.0 13.6 SE 19.0 0.0 0.3
19:49 12.3 7.2 71 1028.7 15.9 SW 19.0 0.0 0.3
19:50 12.3 7.2 71 1028.9 18.3 S 19.0 0.0 0.3
19:51 12.3 7.2 71 1028.7 18.3 S 19.0 0.0 0.3
19:52 12.3 7.2 71 1028.6 17.4 NW 19.0 0.0 0.3
19:53 12.3 7.2 71 1028.7 17.4 SW 19.0 0.0 0.3
19:55 12.2 7.1 71 1028.6 10.7 SW 18.3 0.0 0.3
19:56 12.2 7.1 71 1028.7 11.4 S 18.3 0.0 0.3
19:57 12.2 7.1 71 1028.8 15.2 S 18.3 0.0 0.3
19:58 12.2 7.1 71 1028.9 9.8 S 18.3 0.0 0.3
19:59 12.2 7.1 71 1028.7 12.1 SW 18.3 0.0 0.3
20:00 12.2 7.1 71 1028.9 12.1 SW 18.3 0.0 0.3
20:01 12.2 7.1 71 1028.8 12.1 SW 17.4 0.0 0.3
20:02 12.2 7.1 71 1028.9 12.1 SW 17.4 0.0 0.3
20:03 12.2 7.1 71 1028.7 13.6 SW 17.4 0.0 0.3
20:04 12.1 7.0 71 1028.9 14.5 S 16.8 0.0 0.3
20:05 12.1 7.0 71 1028.9 14.5 S 16.8 0.0 0.3
20:06 12.1 7.0 71 1029.0 12.1 SE 16.8 0.0 0.3
20:07 12.1 7.2 72 1028.9 17.4 W 17.4 0.0 0.3
20:08 12.1 7.2 72 1028.8 15.9 SW 17.4 0.0 0.3
20:09 12.0 7.1 72 1028.9 14.5 SW 17.4 0.0 0.3
20:10 12.0 7.1 72 1029.1 19.7 S 19.7 0.0 0.3
20:12 12.0 7.1 72 1029.1 13.0 S 19.7 0.0 0.3
20:13 12.0 7.1 72 1029.1 12.1 SW 19.7 0.0 0.3
20:14 12.0 7.1 72 1028.9 14.5 SSW 19.7 0.0 0.3
20:15 12.0 7.1 72 1029.1 15.2 WSW 19.7 0.0 0.3
20:16 11.9 7.0 72 1029.1 15.2 SSW 19.7 0.0 0.3
20:17 11.9 7.0 72 1029.1 16.8 SE 19.7 0.0 0.3
20:18 11.9 7.0 72 1029.1 13.0 SW 19.7 0.0 0.3
20:19 11.9 7.0 72 1029.0 9.2 NW 19.7 0.0 0.3
20:20 11.9 7.0 72 1029.0 14.5 SW 19.7 0.0 0.3
20:21 11.9 7.0 72 1029.1 14.5 SW 19.7 0.0 0.3
20:22 11.8 6.9 72 1029.0 12.1 SW 16.8 0.0 0.3
20:23 11.8 6.9 72 1028.8 13.0 SW 16.8 0.0 0.3
20:24 11.8 6.9 72 1028.9 10.7 S 16.8 0.0 0.3
20:25 11.8 6.9 72 1029.0 10.7 SW 16.8 0.0 0.3
20:26 11.8 6.9 72 1028.9 9.8 SW 16.8 0.0 0.3
20:27 11.8 7.1 73 1028.9 13.6 SW 14.5 0.0 0.3
20:29 11.7 7.0 73 1028.9 9.2 S 14.5 0.0 0.3
20:30 11.7 7.0 73 1029.1 15.9 SW 15.9 0.0 0.3
20:31 11.7 7.0 73 1028.9 15.9 SW 15.9 0.0 0.3
20:32 11.7 7.0 73 1028.9 14.5 SW 15.9 0.0 0.3
20:33 11.7 7.0 73 1029.0 14.5 SW 15.9 0.0 0.3
20:34 11.7 7.0 73 1029.3 13.6 SW 15.9 0.0 0.3
20:35 11.6 6.9 73 1028.9 11.4 WSW 15.9 0.0 0.3
20:36 11.6 6.9 73 1028.8 9.8 WSW 15.9 0.0 0.3
20:37 11.6 6.9 73 1029.2 12.1 S 15.9 0.0 0.3
20:38 11.6 6.9 73 1029.0 14.5 S 15.9 0.0 0.3
20:39 11.6 6.9 73 1029.1 14.5 S 15.9 0.0 0.3
20:40 11.6 6.9 73 1029.0 12.1 SE 15.9 0.0 0.3
20:41 11.5 6.8 73 1028.9 8.3 S 15.9 0.0 0.3
20:42 11.5 6.8 73 1029.3 10.7 SW 14.5 0.0 0.3
20:43 11.5 6.8 73 1029.0 8.3 WSW 14.5 0.0 0.3
20:44 11.5 7.0 74 1029.1 11.4 SW 14.5 0.0 0.3
20:45 11.5 7.0 74 1029.2 10.7 S 14.5 0.0 0.3
20:46 11.5 7.0 74 1029.1 9.8 SW 14.5 0.0 0.3
20:47 11.4 6.9 74 1029.0 9.2 S 14.5 0.0 0.3
20:48 11.4 6.9 74 1029.2 9.8 S 14.5 0.0 0.3
20:50 11.4 6.9 74 1029.2 9.8 SE 13.0 0.0 0.3
20:51 11.4 6.9 74 1029.2 12.1 S 13.0 0.0 0.3
20:52 11.4 6.9 74 1029.2 10.7 S 13.0 0.0 0.3
20:53 11.4 6.9 74 1029.2 10.7 W 13.0 0.0 0.3
20:54 11.3 6.8 74 1029.1 13.0 S 13.0 0.0 0.3
20:55 11.3 6.8 74 1029.0 17.4 SSE 17.4 0.0 0.3
20:56 11.3 6.8 74 1029.1 12.1 S 17.4 0.0 0.3
20:57 11.3 6.8 74 1029.2 11.4 SW 17.4 0.0 0.3
20:58 11.2 6.9 75 1029.1 9.2 SW 17.4 0.0 0.3
20:59 11.2 6.9 75 1029.1 9.2 SW 17.4 0.0 0.3
21:00 11.2 6.9 75 1029.3 9.8 S 17.4 0.0 0.3
21:01 11.2 6.9 75 1029.1 9.8 S 17.4 0.0 0.3
21:02 11.2 6.9 75 1029.5 9.8 S 17.4 0.0 0.3
21:03 11.2 6.9 75 1029.3 9.8 S 17.4 0.0 0.3
21:04 11.2 6.9 75 1029.3 9.8 S 17.4 0.0 0.3
21:05 11.2 6.9 75 1029.3 9.8 S 17.4 0.0 0.3
21:06 11.1 6.8 75 1029.4 13.0 S 13.0 0.0 0.3
21:07 11.1 6.8 75 1029.3 10.7 S 13.0 0.0 0.3
21:08 11.1 6.8 75 1029.3 9.2 SE 13.0 0.0 0.3
21:09 11.0 6.7 75 1029.3 10.7 S 13.0 0.0 0.3
21:10 11.0 6.7 75 1029.3 9.2 SW 13.0 0.0 0.3
21:12 11.0 6.7 75 1029.3 9.2 S 13.0 0.0 0.3
21:13 11.0 6.7 75 1029.3 11.4 SW 13.0 0.0 0.3
21:14 10.9 6.6 75 1029.4 7.6 SE 13.0 0.0 0.3
21:15 10.9 6.6 75 1029.3 9.2 SW 13.0 0.0 0.3
21:16 10.9 6.6 75 1029.2 8.3 S 12.1 0.0 0.3
21:17 10.9 6.6 75 1029.4 9.2 S 12.1 0.0 0.3
21:18 10.9 6.8 76 1029.5 11.4 SW 11.4 0.0 0.3
21:19 10.9 6.8 76 1029.6 11.4 SW 11.4 0.0 0.3
21:20 10.9 6.8 76 1029.3 11.4 S 11.4 0.0 0.3
21:21 10.8 6.7 76 1029.4 9.8 SW 11.4 0.0 0.3
21:22 10.8 6.7 76 1029.5 10.7 S 11.4 0.0 0.3
21:23 10.8 6.7 76 1029.3 9.8 SW 11.4 0.0 0.3
21:25 10.8 6.7 76 1029.4 9.2 SW 11.4 0.0 0.3
21:27 10.8 6.7 76 1029.4 6.0 S 11.4 0.0 0.3
21:28 10.8 6.7 76 1029.4 6.0 S 11.4 0.0 0.3
21:29 10.7 6.6 76 1029.4 8.3 SE 11.4 0.0 0.3
21:30 10.7 6.6 76 1029.3 9.8 S 11.4 0.0 0.3
21:31 10.7 6.6 76 1029.4 10.7 SSW 10.7 0.0 0.3
21:32 10.7 6.6 76 1029.4 9.8 SW 10.7 0.0 0.3
21:33 10.7 6.6 76 1029.4 11.4 SW 11.4 0.0 0.3
21:34 10.7 6.6 76 1029.3 9.8 S 11.4 0.0 0.3
21:35 10.7 6.6 76 1029.3 10.7 WSW 11.4 0.0 0.3
21:36 10.6 6.5 76 1029.3 9.8 SW 11.4 0.0 0.3
21:37 10.6 6.7 77 1029.5 10.7 S 11.4 0.0 0.3
21:38 10.6 6.7 77 1029.4 9.2 S 11.4 0.0 0.3
21:39 10.6 6.7 77 1029.5 8.3 S 11.4 0.0 0.3
21:40 10.6 6.7 77 1029.6 11.4 SW 11.4 0.0 0.3
21:41 10.6 6.7 77 1029.4 10.7 S 11.4 0.0 0.3
21:42 10.6 6.7 77 1029.4 11.4 S 11.4 0.0 0.3
21:43 10.6 6.7 77 1029.4 11.4 SW 11.4 0.0 0.3
21:44 10.6 6.7 77 1029.6 8.3 SW 11.4 0.0 0.3
21:46 10.5 6.6 77 1029.7 9.8 SW 11.4 0.0 0.3
21:47 10.5 6.6 77 1029.7 9.2 S 11.4 0.0 0.3
21:48 10.5 6.6 77 1029.6 8.3 SW 11.4 0.0 0.3
21:49 10.5 6.6 77 1029.6 8.3 SSE 11.4 0.0 0.3
21:50 10.5 6.6 77 1029.4 11.4 S 12.1 0.0 0.3
21:51 10.5 6.6 77 1029.7 11.4 S 12.1 0.0 0.3
21:52 10.5 6.8 78 1029.8 11.4 S 12.1 0.0 0.3
21:53 10.5 6.8 78 1029.8 9.8 SW 12.1 0.0 0.3
21:54 10.5 6.8 78 1029.6 9.8 SW 12.1 0.0 0.3
21:55 10.5 6.8 78 1029.7 10.7 W 12.1 0.0 0.3
21:56 10.5 6.8 78 1029.6 11.4 SW 12.1 0.0 0.3
21:57 10.5 6.8 78 1029.8 11.4 S 12.1 0.0 0.3
21:58 10.5 6.8 78 1029.6 8.3 S 12.1 0.0 0.3
21:59 10.5 6.8 78 1029.7 8.3 SW 12.1 0.0 0.3
22:00 10.5 6.8 78 1029.6 10.7 SW 12.1 0.0 0.3
22:01 10.5 6.8 78 1029.8 10.7 SW 11.4 0.0 0.3
22:02 10.5 6.8 78 1029.8 10.7 SW 11.4 0.0 0.3
22:04 10.5 6.8 78 1029.8 10.7 SW 11.4 0.0 0.3
22:05 10.5 6.8 78 1029.7 10.7 SW 11.4 0.0 0.3
22:06 10.4 6.9 79 1029.8 9.2 SW 11.4 0.0 0.3
22:07 10.4 6.9 79 1029.8 9.8 SW 10.7 0.0 0.3
22:08 10.4 6.9 79 1029.8 7.6 SSW 10.7 0.0 0.3
22:09 10.4 6.9 79 1029.8 7.6 S 10.7 0.0 0.3
22:10 10.4 6.9 79 1029.8 12.1 S 12.1 0.0 0.3
22:11 10.4 6.9 79 1029.9 7.6 SW 12.1 0.0 0.3
22:12 10.4 6.9 79 1030.2 10.7 SW 12.1 0.0 0.3
22:13 10.4 6.9 79 1029.9 11.4 SW 12.1 0.0 0.3
22:14 10.4 6.9 79 1030.0 11.4 S 12.1 0.0 0.3
22:15 10.4 6.9 79 1030.0 9.8 W 12.1 0.0 0.3
22:16 10.4 6.9 79 1030.0 7.6 SW 12.1 0.0 0.3
22:17 10.4 6.9 79 1029.8 9.2 SE 12.1 0.0 0.3
22:18 10.4 6.9 79 1030.0 7.6 S 12.1 0.0 0.3
22:19 10.4 6.9 79 1029.9 12.1 S 12.1 0.0 0.3
22:20 10.4 6.9 79 1030.0 11.4 SW 12.1 0.0 0.3
22:21 10.4 6.9 79 1029.9 9.8 SW 12.1 0.0 0.3
22:22 10.4 6.9 79 1030.0 13.6 SW 13.6 0.0 0.3
22:23 10.4 6.9 79 1029.9 12.1 S 13.6 0.0 0.3
22:24 10.4 6.9 79 1029.9 12.1 S 13.6 0.0 0.3
22:25 10.4 6.9 79 1030.0 9.8 S 13.6 0.0 0.3
22:26 10.4 7.1 80 1029.9 10.7 SW 13.6 0.0 0.3
22:29 10.4 7.1 80 1030.1 10.7 S 13.6 0.0 0.3
22:30 10.4 7.1 80 1030.0 9.2 SW 13.6 0.0 0.3
22:31 10.4 7.1 80 1030.0 8.3 SW 13.6 0.0 0.3
22:32 10.4 7.1 80 1029.9 13.0 SW 13.0 0.0 0.3
22:33 10.4 7.1 80 1030.0 12.1 S 13.0 0.0 0.3
22:34 10.5 7.2 80 1029.6 9.8 SW 13.0 0.0 0.3
22:35 10.5 7.2 80 1030.0 9.8 S 13.0 0.0 0.3
22:36 10.5 7.2 80 1030.0 8.3 SW 13.0 0.0 0.3
22:37 10.5 7.2 80 1030.0 11.4 SW 13.0 0.0 0.3
22:38 10.5 7.2 80 1030.0 9.8 S 13.0 0.0 0.3
22:39 10.5 7.2 80 1030.0 8.3 S 13.0 0.0 0.3
22:40 10.5 7.2 80 1030.0 9.2 W 13.0 0.0 0.3
22:41 10.5 7.2 80 1030.0 13.0 SW 13.0 0.0 0.3
22:42 10.5 7.2 80 1029.8 13.0 S 13.0 0.0 0.3
22:43 10.5 7.2 80 1029.9 8.3 S 13.0 0.0 0.3
22:44 10.5 7.2 80 1030.2 11.4 S 13.0 0.0 0.3
22:45 10.5 7.2 80 1029.9 11.4 S 13.0 0.0 0.3
22:46 10.5 7.2 80 1030.0 8.3 SW 13.0 0.0 0.3
22:47 10.5 7.2 80 1030.1 8.3 SW 13.0 0.0 0.3
22:49 10.5 7.2 80 1030.0 13.0 S 13.0 0.0 0.3
22:50 10.5 7.2 80 1030.1 9.8 S 13.0 0.0 0.3
22:51 10.5 7.2 80 1030.0 12.1 S 13.0 0.0 0.3
22:52 10.5 7.2 80 1030.0 13.0 SW 13.0 0.0 0.3
22:53 10.5 7.2 80 1029.9 8.3 S 13.0 0.0 0.3
22:54 10.5 7.2 80 1030.1 6.9 W 13.0 0.0 0.3
22:55 10.5 7.2 80 1030.0 7.6 SW 13.0 0.0 0.3
22:56 10.5 7.2 80 1030.1 8.3 SW 13.0 0.0 0.3
22:57 10.5 7.2 80 1030.0 8.3 SW 13.0 0.0 0.3
22:58 10.5 7.2 80 1030.1 9.2 SW 13.0 0.0 0.3
22:59 10.5 7.2 80 1030.1 7.6 SW 13.0 0.0 0.3
23:00 10.5 7.2 80 1030.0 9.2 S 13.0 0.0 0.3
23:01 10.5 7.2 80 1030.2 9.2 S 13.0 0.0 0.3
23:02 10.5 7.2 80 1030.2 9.2 S 13.0 0.0 0.3
23:03 10.5 7.2 80 1030.1 9.2 S 9.2 0.0 0.3
23:04 10.5 7.2 80 1030.1 9.2 S 9.2 0.0 0.3
23:05 10.5 7.2 80 1030.1 9.2 S 9.2 0.0 0.3
23:06 10.5 7.2 80 1030.1 9.2 S 9.2 0.0 0.3
23:07 10.5 7.2 80 1030.1 9.2 SW 9.2 0.0 0.3
23:09 10.4 7.1 80 1030.1 15.9 S 15.9 0.0 0.3
23:11 10.4 7.1 80 1029.9 10.7 SW 15.9 0.0 0.3
23:12 10.4 7.1 80 1029.9 9.8 S 15.9 0.0 0.3
23:13 10.4 7.1 80 1029.9 10.7 SW 15.9 0.0 0.3
23:14 10.4 7.1 80 1029.8 7.6 SW 15.9 0.0 0.3
23:15 10.4 7.1 80 1029.9 8.3 SW 15.9 0.0 0.3
23:16 10.5 7.2 80 1030.0 8.3 W 15.9 0.0 0.3
23:17 10.5 7.2 80 1030.1 9.2 SW 15.9 0.0 0.3
23:18 10.5 7.2 80 1030.0 12.1 SSW 15.9 0.0 0.3
23:19 10.5 7.2 80 1029.8 8.3 SW 15.9 0.0 0.3
23:20 10.5 7.2 80 1030.0 9.8 SW 12.1 0.0 0.3
23:21 10.5 7.2 80 1029.9 9.2 SW 12.1 0.0 0.3
23:22 10.5 7.2 80 1030.0 7.6 S 12.1 0.0 0.3
23:23 10.5 7.2 80 1030.0 9.2 S 12.1 0.0 0.3
23:24 10.4 7.1 80 1029.9 9.8 SW 12.1 0.0 0.3
23:25 10.4 7.1 80 1030.0 9.8 SW 12.1 0.0 0.3
23:27 10.4 7.1 80 1029.9 11.4 NNW 12.1 0.0 0.3
23:28 10.4 7.1 80 1029.8 9.8 SW 11.4 0.0 0.3
23:29 10.4 7.1 80 1030.0 9.8 SW 11.4 0.0 0.3
23:30 10.4 7.1 80 1029.8 8.3 SW 11.4 0.0 0.3
23:31 10.4 7.1 80 1030.1 9.2 S 11.4 0.0 0.3
23:32 10.4 7.1 80 1029.9 9.2 S 11.4 0.0 0.3
23:33 10.4 7.1 80 1030.0 12.1 WSW 12.1 0.0 0.3
23:34 10.4 7.1 80 1029.9 12.1 SW 12.1 0.0 0.3
23:35 10.4 7.1 80 1029.9 12.1 SW 12.1 0.0 0.3
23:36 10.4 7.1 80 1029.9 9.2 SW 12.1 0.0 0.3
23:37 10.4 7.1 80 1029.8 9.2 S 12.1 0.0 0.3
23:38 10.4 7.1 80 1029.8 9.2 SW 12.1 0.0 0.3
23:39 10.4 7.1 80 1030.0 9.2 SW 12.1 0.0 0.3
23:40 10.4 7.1 80 1029.9 13.0 S 13.0 0.0 0.3
23:41 10.4 7.1 80 1029.9 9.8 SW 13.0 0.0 0.3
23:42 10.4 7.1 80 1030.1 12.1 SW 13.0 0.0 0.3
23:43 10.4 7.1 80 1030.1 9.2 SSW 13.0 0.0 0.3
23:45 10.4 7.1 80 1030.0 9.8 SW 13.0 0.0 0.3
23:46 10.3 7.0 80 1030.1 8.3 SW 13.0 0.0 0.3
23:47 10.3 7.0 80 1030.0 9.2 SW 13.0 0.0 0.3
23:48 10.3 7.0 80 1030.2 9.2 S 13.0 0.0 0.3
23:49 10.3 7.0 80 1030.2 9.2 SW 13.0 0.0 0.3
23:50 10.3 7.0 80 1030.2 9.8 SW 13.0 0.0 0.3
23:51 10.3 7.0 80 1030.1 10.7 S 12.1 0.0 0.3
23:52 10.3 7.0 80 1030.1 9.8 SW 12.1 0.0 0.3
23:53 10.3 7.0 80 1030.2 10.7 S 12.1 0.0 0.3
23:54 10.3 7.0 80 1030.3 9.8 SW 10.7 0.0 0.3
23:55 10.3 7.0 80 1030.2 9.8 SW 10.7 0.0 0.3
23:56 10.3 7.0 80 1030.0 10.7 S 10.7 0.0 0.3
23:57 10.3 7.0 80 1029.9 10.7 S 10.7 0.0 0.3
23:58 10.3 7.0 80 1030.0 12.1 SW 12.1 0.0 0.3
23:59 10.3 7.0 80 1029.9 12.1 S 12.1 0.0 0.3

 

 

UK - WEATHER STATION TOPSITES - UK World Weather Websites

Copyright © Carnkie Weather 2009 - 2020.